Time,TemperatureF,DewpointF,PressureIn,WindDirection,WindDirectionDegrees,WindSpeedMPH,WindSpeedGustMPH,Humidity,HourlyPrecipIn,Conditions,Clouds,dailyrainin,SoftwareType,DateUTC
2013-04-27 00:00:00,54.7,29.4,29.95,North,0,1.6,5.1,38,0.00,,,0.00,WUHU216HW,2013-04-27 06:00:00,
2013-04-27 00:01:00,54.7,29.4,29.95,North,0,0.4,5.1,38,0.00,,,0.00,WUHU216HW,2013-04-27 06:01:00,
2013-04-27 00:02:00,54.7,29.4,29.95,West,270,2.2,5.1,38,0.00,,,0.00,WUHU216HW,2013-04-27 06:02:00,
2013-04-27 00:05:00,54.2,29.0,29.95,WSW,248,5.4,5.4,38,0.00,,,0.00,WUHU216HW,2013-04-27 06:05:00,
2013-04-27 00:06:00,54.0,28.8,29.95,WSW,248,5.4,5.4,38,0.00,,,0.00,WUHU216HW,2013-04-27 06:06:00,
2013-04-27 00:07:00,53.5,29.1,29.95,WSW,248,4.0,5.4,39,0.00,,,0.00,WUHU216HW,2013-04-27 06:07:00,
2013-04-27 00:10:00,52.6,28.3,29.96,West,270,4.7,5.4,39,0.00,,,0.00,WUHU216HW,2013-04-27 06:10:00,
2013-04-27 00:11:00,52.0,29.0,29.96,West,270,4.7,5.8,41,0.00,,,0.00,WUHU216HW,2013-04-27 06:11:00,
2013-04-27 00:12:00,51.5,28.5,29.96,West,270,3.1,5.8,41,0.00,,,0.00,WUHU216HW,2013-04-27 06:12:00,
2013-04-27 00:15:00,51.1,28.2,29.96,WSW,248,2.5,5.8,41,0.00,,,0.00,WUHU216HW,2013-04-27 06:15:00,
2013-04-27 00:16:00,50.8,27.8,29.96,WSW,248,3.1,5.8,41,0.00,,,0.00,WUHU216HW,2013-04-27 06:16:00,
2013-04-27 00:17:00,50.8,27.8,29.96,NNW,338,0.4,5.8,41,0.00,,,0.00,WUHU216HW,2013-04-27 06:17:00,
2013-04-27 00:20:00,50.9,29.2,29.96,WNW,293,4.7,5.8,43,0.00,,,0.00,WUHU216HW,2013-04-27 06:20:00,
2013-04-27 00:21:00,51.1,29.3,29.96,WNW,293,5.1,5.1,43,0.00,,,0.00,WUHU216HW,2013-04-27 06:21:00,
2013-04-27 00:22:00,51.5,29.6,29.96,NNW,338,5.4,7.2,43,0.00,,,0.00,WUHU216HW,2013-04-27 06:22:00,
2013-04-27 00:25:00,51.8,29.3,29.96,North,0,1.8,7.2,42,0.00,,,0.00,WUHU216HW,2013-04-27 06:25:00,
2013-04-27 00:26:00,51.8,29.3,29.96,North,0,1.8,7.2,42,0.00,,,0.00,WUHU216HW,2013-04-27 06:26:00,
2013-04-27 00:27:00,52.6,29.4,29.95,NE,45,3.4,7.2,41,0.00,,,0.00,WUHU216HW,2013-04-27 06:27:00,
2013-04-27 00:30:00,52.9,29.8,29.95,NNW,338,2.7,7.2,41,0.00,,,0.00,WUHU216HW,2013-04-27 06:30:00,
2013-04-27 00:31:00,53.1,29.4,29.96,NE,45,1.8,7.2,40,0.00,,,0.00,WUHU216HW,2013-04-27 06:31:00,
2013-04-27 00:32:00,53.5,29.7,29.95,North,0,2.5,5.4,40,0.00,,,0.00,WUHU216HW,2013-04-27 06:32:00,
2013-04-27 00:35:00,53.8,29.3,29.95,NNE,23,0.9,3.8,39,0.00,,,0.00,WUHU216HW,2013-04-27 06:35:00,
2013-04-27 00:36:00,53.8,29.3,29.95,NNE,23,0.9,3.8,39,0.00,,,0.00,WUHU216HW,2013-04-27 06:36:00,
2013-04-27 00:37:00,54.0,29.5,29.95,NW,315,1.1,3.8,39,0.00,,,0.00,WUHU216HW,2013-04-27 06:37:00,
2013-04-27 00:38:00,54.0,29.5,29.95,NNW,338,1.1,3.8,39,0.00,,,0.00,WUHU216HW,2013-04-27 06:38:00,
2013-04-27 00:41:00,54.0,29.5,29.95,SW,225,1.1,3.8,39,0.00,,,0.00,WUHU216HW,2013-04-27 06:41:00,
2013-04-27 00:42:00,54.0,29.5,29.95,SW,225,1.3,3.8,39,0.00,,,0.00,WUHU216HW,2013-04-27 06:42:00,
2013-04-27 00:43:00,54.0,29.5,29.95,SW,225,3.6,3.6,39,0.00,,,0.00,WUHU216HW,2013-04-27 06:43:00,
2013-04-27 00:46:00,53.5,29.1,29.95,West,270,3.8,5.6,39,0.00,,,0.00,WUHU216HW,2013-04-27 06:46:00,
2013-04-27 00:47:00,53.3,28.9,29.95,WNW,293,3.8,5.6,39,0.00,,,0.00,WUHU216HW,2013-04-27 06:47:00,
2013-04-27 00:48:00,53.1,28.7,29.95,West,270,4.0,5.6,39,0.00,,,0.00,WUHU216HW,2013-04-27 06:48:00,
2013-04-27 00:51:00,52.9,28.5,29.95,West,270,5.8,9.4,39,0.00,,,0.00,WUHU216HW,2013-04-27 06:51:00,
2013-04-27 00:52:00,52.9,28.5,29.95,West,270,6.9,9.4,39,0.00,,,0.00,WUHU216HW,2013-04-27 06:52:00,
2013-04-27 00:53:00,52.9,28.5,29.95,West,270,5.4,9.4,39,0.00,,,0.00,WUHU216HW,2013-04-27 06:53:00,
2013-04-27 00:56:00,52.7,28.4,29.95,West,270,2.9,9.4,39,0.00,,,0.00,WUHU216HW,2013-04-27 06:56:00,
2013-04-27 00:57:00,52.7,28.4,29.95,West,270,2.9,9.4,39,0.00,,,0.00,WUHU216HW,2013-04-27 06:57:00,
2013-04-27 00:58:00,52.6,28.9,29.95,SW,225,3.4,9.4,40,0.00,,,0.00,WUHU216HW,2013-04-27 06:58:00,
2013-04-27 01:01:00,51.8,28.8,29.95,WNW,293,3.8,6.9,41,0.00,,,0.00,WUHU216HW,2013-04-27 07:01:00,
2013-04-27 01:02:00,51.8,28.8,29.95,WNW,293,5.6,6.9,41,0.00,,,0.00,WUHU216HW,2013-04-27 07:02:00,
2013-04-27 01:03:00,51.8,29.3,29.95,NW,315,4.7,5.6,42,0.00,,,0.00,WUHU216HW,2013-04-27 07:03:00,
2013-04-27 01:07:00,51.8,28.8,29.95,ENE,68,1.1,6.7,41,0.00,,,0.00,WUHU216HW,2013-04-27 07:07:00,
2013-04-27 01:08:00,52.0,29.0,29.95,NNE,23,2.5,6.7,41,0.00,,,0.00,WUHU216HW,2013-04-27 07:08:00,
2013-04-27 01:12:00,52.7,29.1,29.95,NE,45,4.7,6.7,40,0.00,,,0.00,WUHU216HW,2013-04-27 07:12:00,
2013-04-27 01:13:00,52.9,29.3,29.95,North,0,2.9,6.7,40,0.00,,,0.00,WUHU216HW,2013-04-27 07:13:00,
2013-04-27 01:14:00,53.1,29.4,29.95,NNW,338,2.2,6.7,40,0.00,,,0.00,WUHU216HW,2013-04-27 07:14:00,
2013-04-27 01:17:00,53.1,29.4,29.95,NE,45,6.7,6.7,40,0.00,,,0.00,WUHU216HW,2013-04-27 07:17:00,
2013-04-27 01:18:00,53.1,29.4,29.95,NE,45,8.3,8.3,40,0.00,,,0.00,WUHU216HW,2013-04-27 07:18:00,
2013-04-27 01:19:00,53.1,29.4,29.95,NE,45,9.8,9.8,40,0.00,,,0.00,WUHU216HW,2013-04-27 07:19:00,
2013-04-27 01:22:00,52.9,29.3,29.95,ENE,68,4.9,9.8,40,0.00,,,0.00,WUHU216HW,2013-04-27 07:22:00,
2013-04-27 01:23:00,52.9,29.3,29.95,East,90,4.9,9.8,40,0.00,,,0.00,WUHU216HW,2013-04-27 07:23:00,
2013-04-27 01:24:00,53.1,29.4,29.95,East,90,2.9,9.8,40,0.00,,,0.00,WUHU216HW,2013-04-27 07:24:00,
2013-04-27 01:27:00,53.1,29.4,29.95,East,90,3.1,9.8,40,0.00,,,0.00,WUHU216HW,2013-04-27 07:27:00,
2013-04-27 01:28:00,53.1,29.4,29.95,ENE,68,4.5,9.8,40,0.00,,,0.00,WUHU216HW,2013-04-27 07:28:00,
2013-04-27 01:29:00,53.1,29.4,29.95,ENE,68,4.7,7.8,40,0.00,,,0.00,WUHU216HW,2013-04-27 07:29:00,
2013-04-27 01:33:00,52.9,28.5,29.95,NE,45,4.5,6.5,39,0.00,,,0.00,WUHU216HW,2013-04-27 07:33:00,
2013-04-27 01:34:00,52.9,27.9,29.95,NE,45,2.7,6.5,38,0.00,,,0.00,WUHU216HW,2013-04-27 07:34:00,
2013-04-27 01:38:00,52.9,28.5,29.95,ESE,113,3.4,6.5,39,0.00,,,0.00,WUHU216HW,2013-04-27 07:38:00,
2013-04-27 01:39:00,52.9,28.5,29.95,South,180,0.4,6.5,39,0.00,,,0.00,WUHU216HW,2013-04-27 07:39:00,
2013-04-27 01:43:00,52.6,28.3,29.95,WSW,248,3.4,5.1,39,0.00,,,0.00,WUHU216HW,2013-04-27 07:43:00,
2013-04-27 01:44:00,52.4,28.1,29.95,West,270,2.9,5.1,39,0.00,,,0.00,WUHU216HW,2013-04-27 07:44:00,
2013-04-27 01:48:00,51.3,27.8,29.95,West,270,3.4,5.8,40,0.00,,,0.00,WUHU216HW,2013-04-27 07:48:00,
2013-04-27 01:49:00,51.1,27.6,29.95,WNW,293,1.6,5.8,40,0.00,,,0.00,WUHU216HW,2013-04-27 07:49:00,
2013-04-27 01:53:00,50.8,27.8,29.95,ENE,68,5.6,5.8,41,0.00,,,0.00,WUHU216HW,2013-04-27 07:53:00,
2013-04-27 01:54:00,50.9,28.0,29.95,ENE,68,5.6,5.8,41,0.00,,,0.00,WUHU216HW,2013-04-27 07:54:00,
2013-04-27 01:55:00,51.3,28.4,29.95,ENE,68,3.4,5.8,41,0.00,,,0.00,WUHU216HW,2013-04-27 07:55:00,
2013-04-27 01:58:00,51.5,27.9,29.95,WNW,293,2.7,5.6,40,0.00,,,0.00,WUHU216HW,2013-04-27 07:58:00,
2013-04-27 01:59:00,51.5,27.9,29.95,West,270,1.1,5.6,40,0.00,,,0.00,WUHU216HW,2013-04-27 07:59:00,
2013-04-27 02:00:00,51.3,27.8,29.95,West,270,0.4,5.6,40,0.00,,,0.00,WUHU216HW,2013-04-27 08:00:00,
2013-04-27 02:03:00,50.8,27.3,29.95,East,90,0.2,5.6,40,0.00,,,0.00,WUHU216HW,2013-04-27 08:03:00,
2013-04-27 02:04:00,50.6,27.1,29.95,East,90,1.1,5.1,40,0.00,,,0.00,WUHU216HW,2013-04-27 08:04:00,
2013-04-27 02:05:00,50.4,27.0,29.95,East,90,0.0,3.4,40,0.00,,,0.00,WUHU216HW,2013-04-27 08:05:00,
2013-04-27 02:08:00,50.0,26.6,29.95,South,180,2.0,2.0,40,0.00,,,0.00,WUHU216HW,2013-04-27 08:08:00,
2013-04-27 02:09:00,50.0,25.9,29.95,SSW,203,2.5,2.5,39,0.00,,,0.00,WUHU216HW,2013-04-27 08:09:00,
2013-04-27 02:12:00,49.7,26.3,29.95,SSE,158,1.1,3.4,40,0.00,,,0.00,WUHU216HW,2013-04-27 08:12:00,
2013-04-27 02:13:00,49.7,26.3,29.95,South,180,3.4,3.4,40,0.00,,,0.00,WUHU216HW,2013-04-27 08:13:00,
2013-04-27 02:14:00,49.5,26.2,29.95,SW,225,3.4,3.4,40,0.00,,,0.00,WUHU216HW,2013-04-27 08:14:00,
2013-04-27 02:15:00,49.5,26.2,29.95,WSW,248,7.4,7.4,40,0.00,,,0.00,WUHU216HW,2013-04-27 08:15:00,
2013-04-27 02:17:00,49.3,27.1,29.95,WSW,248,6.7,8.5,42,0.00,,,0.00,WUHU216HW,2013-04-27 08:17:00,
2013-04-27 02:18:00,49.1,26.4,29.95,SW,225,4.7,8.5,41,0.00,,,0.00,WUHU216HW,2013-04-27 08:18:00,
2013-04-27 02:19:00,49.0,26.2,29.95,SSW,203,5.4,8.5,41,0.00,,,0.00,WUHU216HW,2013-04-27 08:19:00,
2013-04-27 02:20:00,49.1,26.9,29.95,SW,225,4.7,8.5,42,0.00,,,0.00,WUHU216HW,2013-04-27 08:20:00,
2013-04-27 02:22:00,48.6,26.5,29.95,SW,225,2.9,8.5,42,0.00,,,0.00,WUHU216HW,2013-04-27 08:22:00,
2013-04-27 02:24:00,48.6,26.5,29.94,SW,225,1.6,8.5,42,0.00,,,0.00,WUHU216HW,2013-04-27 08:24:00,
2013-04-27 02:25:00,48.4,26.3,29.95,SW,225,0.9,8.5,42,0.00,,,0.00,WUHU216HW,2013-04-27 08:25:00,
2013-04-27 02:26:00,48.4,26.3,29.95,SW,225,0.4,8.5,42,0.00,,,0.00,WUHU216HW,2013-04-27 08:26:00,
2013-04-27 02:27:00,48.2,27.2,29.94,SSW,203,0.4,5.6,44,0.00,,,0.00,WUHU216HW,2013-04-27 08:27:00,
2013-04-27 02:29:00,48.1,26.5,29.94,SE,135,2.0,5.4,43,0.00,,,0.00,WUHU216HW,2013-04-27 08:29:00,
2013-04-27 02:30:00,48.1,26.5,29.94,SE,135,2.5,4.5,43,0.00,,,0.00,WUHU216HW,2013-04-27 08:30:00,
2013-04-27 02:31:00,48.1,26.5,29.94,SE,135,2.5,3.8,43,0.00,,,0.00,WUHU216HW,2013-04-27 08:31:00,
2013-04-27 02:32:00,48.1,25.9,29.94,SE,135,2.5,2.9,42,0.00,,,0.00,WUHU216HW,2013-04-27 08:32:00,
2013-04-27 02:34:00,48.1,25.9,29.94,SW,225,3.4,3.4,42,0.00,,,0.00,WUHU216HW,2013-04-27 08:34:00,
2013-04-27 02:36:00,47.9,25.7,29.94,WSW,248,4.0,4.0,42,0.00,,,0.00,WUHU216HW,2013-04-27 08:36:00,
2013-04-27 02:37:00,47.7,26.2,29.94,SW,225,5.4,5.6,43,0.00,,,0.00,WUHU216HW,2013-04-27 08:37:00,
2013-04-27 02:40:00,47.5,26.0,29.94,WSW,248,2.2,5.6,43,0.00,,,0.00,WUHU216HW,2013-04-27 08:40:00,
2013-04-27 02:41:00,47.5,26.0,29.94,SW,225,2.9,5.6,43,0.00,,,0.00,WUHU216HW,2013-04-27 08:41:00,
2013-04-27 02:42:00,47.3,25.8,29.94,SW,225,3.4,5.6,43,0.00,,,0.00,WUHU216HW,2013-04-27 08:42:00,
2013-04-27 02:45:00,47.3,25.8,29.94,SW,225,0.7,5.6,43,0.00,,,0.00,WUHU216HW,2013-04-27 08:45:00,
2013-04-27 02:46:00,47.3,25.8,29.94,SW,225,0.7,5.6,43,0.00,,,0.00,WUHU216HW,2013-04-27 08:46:00,
2013-04-27 02:47:00,47.3,25.8,29.94,SW,225,4.3,4.9,43,0.00,,,0.00,WUHU216HW,2013-04-27 08:47:00,
2013-04-27 02:50:00,47.5,26.6,29.94,SW,225,4.0,4.7,44,0.00,,,0.00,WUHU216HW,2013-04-27 08:50:00,
2013-04-27 02:51:00,47.5,26.6,29.94,SW,225,4.0,4.7,44,0.00,,,0.00,WUHU216HW,2013-04-27 08:51:00,
2013-04-27 02:53:00,47.7,27.8,29.94,NNW,338,5.4,6.0,46,0.00,,,0.00,WUHU216HW,2013-04-27 08:53:00,
2013-04-27 02:55:00,47.9,27.9,29.94,North,0,1.1,6.0,46,0.00,,,0.00,WUHU216HW,2013-04-27 08:55:00,
2013-04-27 02:56:00,48.1,27.5,29.94,NNE,23,0.9,6.0,45,0.00,,,0.00,WUHU216HW,2013-04-27 08:56:00,
2013-04-27 02:58:00,48.4,27.9,29.94,NNE,23,0.0,6.0,45,0.00,,,0.00,WUHU216HW,2013-04-27 08:58:00,
2013-04-27 03:00:00,48.6,27.6,29.94,ESE,113,2.7,6.0,44,0.00,,,0.00,WUHU216HW,2013-04-27 09:00:00,
2013-04-27 03:01:00,48.6,27.6,29.94,ESE,113,4.0,6.0,44,0.00,,,0.00,WUHU216HW,2013-04-27 09:01:00,
2013-04-27 03:03:00,48.6,27.6,29.94,SSW,203,2.5,4.5,44,0.00,,,0.00,WUHU216HW,2013-04-27 09:03:00,
2013-04-27 03:06:00,48.2,26.6,29.94,SW,225,2.5,4.5,43,0.00,,,0.00,WUHU216HW,2013-04-27 09:06:00,
2013-04-27 03:07:00,48.1,26.5,29.94,SSW,203,1.8,4.5,43,0.00,,,0.00,WUHU216HW,2013-04-27 09:07:00,
2013-04-27 03:08:00,48.1,26.5,29.94,SSW,203,2.9,4.5,43,0.00,,,0.00,WUHU216HW,2013-04-27 09:08:00,
2013-04-27 03:11:00,47.7,26.7,29.94,SSW,203,2.5,4.5,44,0.00,,,0.00,WUHU216HW,2013-04-27 09:11:00,
2013-04-27 03:12:00,47.7,26.7,29.94,South,180,1.8,3.4,44,0.00,,,0.00,WUHU216HW,2013-04-27 09:12:00,
2013-04-27 03:13:00,47.5,26.6,29.94,SW,225,2.2,3.4,44,0.00,,,0.00,WUHU216HW,2013-04-27 09:13:00,
2013-04-27 03:16:00,47.2,26.2,29.94,SW,225,2.5,4.0,44,0.00,,,0.00,WUHU216HW,2013-04-27 09:16:00,
2013-04-27 03:17:00,47.0,26.0,29.94,SW,225,1.8,4.0,44,0.00,,,0.00,WUHU216HW,2013-04-27 09:17:00,
2013-04-27 03:18:00,46.8,26.5,29.94,West,270,3.6,4.0,45,0.00,,,0.00,WUHU216HW,2013-04-27 09:18:00,
2013-04-27 03:21:00,46.4,26.1,29.94,WSW,248,2.5,4.0,45,0.00,,,0.00,WUHU216HW,2013-04-27 09:21:00,
2013-04-27 03:22:00,46.3,25.9,29.94,WSW,248,2.5,4.0,45,0.00,,,0.00,WUHU216HW,2013-04-27 09:22:00,
2013-04-27 03:23:00,46.1,25.7,29.94,SW,225,2.7,4.0,45,0.00,,,0.00,WUHU216HW,2013-04-27 09:23:00,
2013-04-27 03:26:00,45.7,26.0,29.94,West,270,4.0,4.5,46,0.00,,,0.00,WUHU216HW,2013-04-27 09:26:00,
2013-04-27 03:27:00,45.7,27.1,29.94,WNW,293,6.0,6.0,48,0.00,,,0.00,WUHU216HW,2013-04-27 09:27:00,
2013-04-27 03:28:00,45.7,27.6,29.94,WNW,293,4.0,6.0,49,0.00,,,0.00,WUHU216HW,2013-04-27 09:28:00,
2013-04-27 03:31:00,46.1,27.4,29.93,West,270,0.9,6.0,48,0.00,,,0.00,WUHU216HW,2013-04-27 09:31:00,
2013-04-27 03:32:00,46.1,26.8,29.94,West,270,0.7,6.0,47,0.00,,,0.00,WUHU216HW,2013-04-27 09:32:00,
2013-04-27 03:33:00,46.3,27.0,29.94,WSW,248,5.4,6.0,47,0.00,,,0.00,WUHU216HW,2013-04-27 09:33:00,
2013-04-27 03:34:00,46.3,27.0,29.94,WSW,248,2.7,6.0,47,0.00,,,0.00,WUHU216HW,2013-04-27 09:34:00,
2013-04-27 03:36:00,46.1,26.8,29.93,SE,135,3.4,6.0,47,0.00,,,0.00,WUHU216HW,2013-04-27 09:36:00,
2013-04-27 03:37:00,46.1,26.8,29.93,SSE,158,3.1,5.6,47,0.00,,,0.00,WUHU216HW,2013-04-27 09:37:00,
2013-04-27 03:38:00,46.1,26.8,29.93,SSE,158,1.8,5.6,47,0.00,,,0.00,WUHU216HW,2013-04-27 09:38:00,
2013-04-27 03:39:00,46.1,26.8,29.93,SSE,158,1.8,5.6,47,0.00,,,0.00,WUHU216HW,2013-04-27 09:39:00,
2013-04-27 03:41:00,46.3,27.0,29.93,SSE,158,0.4,5.6,47,0.00,,,0.00,WUHU216HW,2013-04-27 09:41:00,
2013-04-27 03:42:00,46.3,27.0,29.93,WSW,248,1.1,5.6,47,0.00,,,0.00,WUHU216HW,2013-04-27 09:42:00,
2013-04-27 03:43:00,46.3,27.0,29.93,SW,225,2.0,5.6,47,0.00,,,0.00,WUHU216HW,2013-04-27 09:43:00,
2013-04-27 03:44:00,46.3,27.0,29.93,SSW,203,2.5,3.6,47,0.00,,,0.00,WUHU216HW,2013-04-27 09:44:00,
2013-04-27 03:47:00,46.1,26.8,29.93,SSW,203,3.6,3.6,47,0.00,,,0.00,WUHU216HW,2013-04-27 09:47:00,
2013-04-27 03:48:00,46.1,26.8,29.93,SW,225,3.8,3.8,47,0.00,,,0.00,WUHU216HW,2013-04-27 09:48:00,
2013-04-27 03:49:00,46.1,26.8,29.93,WSW,248,3.6,3.8,47,0.00,,,0.00,WUHU216HW,2013-04-27 09:49:00,
2013-04-27 03:52:00,45.7,26.6,29.93,SW,225,2.5,3.8,47,0.00,,,0.00,WUHU216HW,2013-04-27 09:52:00,
2013-04-27 03:53:00,45.7,26.6,29.93,SW,225,1.8,3.8,47,0.00,,,0.00,WUHU216HW,2013-04-27 09:53:00,
2013-04-27 03:54:00,45.7,26.6,29.93,SSW,203,0.9,3.8,47,0.00,,,0.00,WUHU216HW,2013-04-27 09:54:00,
2013-04-27 03:57:00,46.1,27.9,29.93,WSW,248,3.4,3.8,49,0.00,,,0.00,WUHU216HW,2013-04-27 09:57:00,
2013-04-27 03:58:00,46.6,28.5,29.93,SW,225,4.9,5.8,49,0.00,,,0.00,WUHU216HW,2013-04-27 09:58:00,
2013-04-27 03:59:00,46.6,27.9,29.93,NW,315,3.4,5.8,48,0.00,,,0.00,WUHU216HW,2013-04-27 09:59:00,
2013-04-27 04:00:00,46.8,28.1,29.93,WSW,248,3.1,5.8,48,0.00,,,0.00,WUHU216HW,2013-04-27 10:00:00,
2013-04-27 04:02:00,47.0,27.6,29.93,WSW,248,6.9,6.9,47,0.00,,,0.00,WUHU216HW,2013-04-27 10:02:00,
2013-04-27 04:03:00,46.8,27.6,29.93,WSW,248,7.2,7.2,47,0.00,,,0.00,WUHU216HW,2013-04-27 10:03:00,
2013-04-27 04:04:00,46.6,27.4,29.93,SW,225,3.4,7.2,47,0.00,,,0.00,WUHU216HW,2013-04-27 10:04:00,
2013-04-27 04:05:00,46.4,27.2,29.93,WSW,248,3.1,7.2,47,0.00,,,0.00,WUHU216HW,2013-04-27 10:05:00,
2013-04-27 04:07:00,46.4,28.3,29.93,WSW,248,4.3,7.2,49,0.00,,,0.00,WUHU216HW,2013-04-27 10:07:00,
2013-04-27 04:08:00,46.1,27.9,29.93,WSW,248,5.4,7.2,49,0.00,,,0.00,WUHU216HW,2013-04-27 10:08:00,
2013-04-27 04:09:00,46.1,27.9,29.93,West,270,3.4,7.2,49,0.00,,,0.00,WUHU216HW,2013-04-27 10:09:00,
2013-04-27 04:10:00,46.1,27.4,29.93,SW,225,5.4,7.2,48,0.00,,,0.00,WUHU216HW,2013-04-27 10:10:00,
2013-04-27 04:12:00,46.1,27.4,29.93,West,270,2.9,7.2,48,0.00,,,0.00,WUHU216HW,2013-04-27 10:12:00,
2013-04-27 04:13:00,46.1,27.4,29.93,WSW,248,4.0,6.0,48,0.00,,,0.00,WUHU216HW,2013-04-27 10:13:00,
2013-04-27 04:14:00,46.1,27.4,29.93,WSW,248,4.7,6.0,48,0.00,,,0.00,WUHU216HW,2013-04-27 10:14:00,
2013-04-27 04:15:00,46.1,27.9,29.93,WSW,248,5.4,6.0,49,0.00,,,0.00,WUHU216HW,2013-04-27 10:15:00,
2013-04-27 04:17:00,46.3,28.6,29.93,West,270,4.9,6.9,50,0.00,,,0.00,WUHU216HW,2013-04-27 10:17:00,
2013-04-27 04:18:00,46.1,28.4,29.93,WSW,248,6.9,7.6,50,0.00,,,0.00,WUHU216HW,2013-04-27 10:18:00,
2013-04-27 04:19:00,46.1,27.9,29.93,WSW,248,5.8,7.6,49,0.00,,,0.00,WUHU216HW,2013-04-27 10:19:00,
2013-04-27 04:20:00,46.1,28.4,29.93,WSW,248,7.6,8.9,50,0.00,,,0.00,WUHU216HW,2013-04-27 10:20:00,
2013-04-27 04:22:00,46.1,28.4,29.93,WSW,248,4.7,8.9,50,0.00,,,0.00,WUHU216HW,2013-04-27 10:22:00,
2013-04-27 04:23:00,46.1,28.4,29.93,WSW,248,4.0,8.9,50,0.00,,,0.00,WUHU216HW,2013-04-27 10:23:00,
2013-04-27 04:24:00,46.1,27.9,29.93,SW,225,2.9,8.9,49,0.00,,,0.00,WUHU216HW,2013-04-27 10:24:00,
2013-04-27 04:25:00,46.4,28.3,29.93,West,270,2.9,8.9,49,0.00,,,0.00,WUHU216HW,2013-04-27 10:25:00,
2013-04-27 04:26:00,46.4,28.3,29.93,WSW,248,2.2,8.9,49,0.00,,,0.00,WUHU216HW,2013-04-27 10:26:00,
2013-04-27 04:27:00,46.6,28.5,29.92,SW,225,3.4,8.9,49,0.00,,,0.00,WUHU216HW,2013-04-27 10:27:00,
2013-04-27 04:28:00,46.8,28.1,29.92,SW,225,2.5,8.9,48,0.00,,,0.00,WUHU216HW,2013-04-27 10:28:00,
2013-04-27 04:29:00,46.8,28.1,29.92,SSE,158,2.2,8.9,48,0.00,,,0.00,WUHU216HW,2013-04-27 10:29:00,
2013-04-27 04:30:00,47.0,28.2,29.92,WSW,248,4.0,8.9,48,0.00,,,0.00,WUHU216HW,2013-04-27 10:30:00,
2013-04-27 04:31:00,47.2,28.4,29.92,WSW,248,6.3,7.6,48,0.00,,,0.00,WUHU216HW,2013-04-27 10:31:00,
2013-04-27 04:32:00,47.2,28.4,29.92,SSW,203,2.2,7.2,48,0.00,,,0.00,WUHU216HW,2013-04-27 10:32:00,
2013-04-27 04:33:00,47.2,28.4,29.92,SW,225,1.8,7.2,48,0.00,,,0.00,WUHU216HW,2013-04-27 10:33:00,
2013-04-27 04:34:00,47.0,28.2,29.92,WNW,293,3.8,7.2,48,0.00,,,0.00,WUHU216HW,2013-04-27 10:34:00,
2013-04-27 04:35:00,47.0,28.7,29.92,West,270,5.4,7.2,49,0.00,,,0.00,WUHU216HW,2013-04-27 10:35:00,
2013-04-27 04:36:00,46.8,28.1,29.92,WSW,248,3.4,7.2,48,0.00,,,0.00,WUHU216HW,2013-04-27 10:36:00,
2013-04-27 04:37:00,46.8,28.1,29.92,WSW,248,2.0,7.2,48,0.00,,,0.00,WUHU216HW,2013-04-27 10:37:00,
2013-04-27 04:38:00,46.6,27.9,29.92,WSW,248,2.0,7.2,48,0.00,,,0.00,WUHU216HW,2013-04-27 10:38:00,
2013-04-27 04:39:00,46.6,27.9,29.92,SSW,203,1.6,7.2,48,0.00,,,0.00,WUHU216HW,2013-04-27 10:39:00,
2013-04-27 04:40:00,46.4,27.7,29.92,SSE,158,5.4,7.2,48,0.00,,,0.00,WUHU216HW,2013-04-27 10:40:00,
2013-04-27 04:41:00,46.4,28.3,29.92,WSW,248,1.8,6.0,49,0.00,,,0.00,WUHU216HW,2013-04-27 10:41:00,
2013-04-27 04:42:00,46.4,27.7,29.92,South,180,4.0,6.0,48,0.00,,,0.00,WUHU216HW,2013-04-27 10:42:00,
2013-04-27 04:44:00,46.4,27.7,29.92,SSE,158,4.0,6.0,48,0.00,,,0.00,WUHU216HW,2013-04-27 10:44:00,
2013-04-27 04:45:00,46.4,27.7,29.92,SW,225,5.4,5.4,48,0.00,,,0.00,WUHU216HW,2013-04-27 10:45:00,
2013-04-27 04:47:00,46.4,27.7,29.93,SSW,203,3.1,5.4,48,0.00,,,0.00,WUHU216HW,2013-04-27 10:47:00,
2013-04-27 04:48:00,46.4,27.7,29.93,SSW,203,4.7,5.4,48,0.00,,,0.00,WUHU216HW,2013-04-27 10:48:00,
2013-04-27 04:49:00,46.4,27.7,29.93,SSW,203,4.7,5.4,48,0.00,,,0.00,WUHU216HW,2013-04-27 10:49:00,
2013-04-27 04:51:00,46.4,27.7,29.92,ESE,113,6.0,6.0,48,0.00,,,0.00,WUHU216HW,2013-04-27 10:51:00,
2013-04-27 04:52:00,46.3,27.5,29.93,SSE,158,4.0,6.0,48,0.00,,,0.00,WUHU216HW,2013-04-27 10:52:00,
2013-04-27 04:53:00,46.3,28.1,29.93,WNW,293,2.9,6.0,49,0.00,,,0.00,WUHU216HW,2013-04-27 10:53:00,
2013-04-27 04:54:00,46.3,29.1,29.93,West,270,4.0,6.0,51,0.00,,,0.00,WUHU216HW,2013-04-27 10:54:00,
2013-04-27 04:56:00,46.1,28.4,29.93,SE,135,1.1,6.0,50,0.00,,,0.00,WUHU216HW,2013-04-27 10:56:00,
2013-04-27 04:57:00,46.3,28.6,29.93,ESE,113,3.4,6.0,50,0.00,,,0.00,WUHU216HW,2013-04-27 10:57:00,
2013-04-27 04:58:00,46.3,28.6,29.93,ENE,68,4.7,6.0,50,0.00,,,0.00,WUHU216HW,2013-04-27 10:58:00,
2013-04-27 04:59:00,46.3,29.1,29.93,North,0,2.0,6.0,51,0.00,,,0.00,WUHU216HW,2013-04-27 10:59:00,
2013-04-27 05:00:00,46.3,29.1,29.93,North,0,1.1,6.0,51,0.00,,,0.00,WUHU216HW,2013-04-27 11:00:00,
2013-04-27 05:01:00,46.1,28.4,29.93,SE,135,0.0,4.7,50,0.00,,,0.00,WUHU216HW,2013-04-27 11:01:00,
2013-04-27 05:02:00,46.1,28.4,29.92,SE,135,0.2,4.7,50,0.00,,,0.00,WUHU216HW,2013-04-27 11:02:00,
2013-04-27 05:03:00,46.1,27.9,29.92,SSW,203,2.2,4.7,49,0.00,,,0.00,WUHU216HW,2013-04-27 11:03:00,
2013-04-27 05:04:00,45.9,27.8,29.92,SSW,203,3.6,4.7,49,0.00,,,0.00,WUHU216HW,2013-04-27 11:04:00,
2013-04-27 05:05:00,45.9,27.8,29.92,ESE,113,4.0,4.7,49,0.00,,,0.00,WUHU216HW,2013-04-27 11:05:00,
2013-04-27 05:06:00,45.9,27.8,29.92,NW,315,0.4,4.7,49,0.00,,,0.00,WUHU216HW,2013-04-27 11:06:00,
2013-04-27 05:07:00,45.9,28.4,29.92,West,270,2.7,4.7,50,0.00,,,0.00,WUHU216HW,2013-04-27 11:07:00,
2013-04-27 05:08:00,45.9,28.4,29.92,West,270,0.4,4.7,50,0.00,,,0.00,WUHU216HW,2013-04-27 11:08:00,
2013-04-27 05:09:00,45.9,27.8,29.92,SSE,158,1.1,4.0,49,0.00,,,0.00,WUHU216HW,2013-04-27 11:09:00,
2013-04-27 05:10:00,45.9,27.8,29.92,SE,135,2.2,4.0,49,0.00,,,0.00,WUHU216HW,2013-04-27 11:10:00,
2013-04-27 05:12:00,45.9,27.8,29.92,SE,135,2.2,4.0,49,0.00,,,0.00,WUHU216HW,2013-04-27 11:12:00,
2013-04-27 05:13:00,45.7,27.6,29.92,SW,225,1.8,4.0,49,0.00,,,0.00,WUHU216HW,2013-04-27 11:13:00,
2013-04-27 05:15:00,45.7,27.6,29.92,WNW,293,1.8,4.0,49,0.00,,,0.00,WUHU216HW,2013-04-27 11:15:00,
2013-04-27 05:17:00,45.5,27.5,29.92,SW,225,2.9,2.9,49,0.00,,,0.00,WUHU216HW,2013-04-27 11:17:00,
2013-04-27 05:18:00,45.5,27.5,29.92,SW,225,1.8,3.1,49,0.00,,,0.00,WUHU216HW,2013-04-27 11:18:00,
2013-04-27 05:20:00,45.4,27.8,29.92,West,270,3.4,3.6,50,0.00,,,0.00,WUHU216HW,2013-04-27 11:20:00,
2013-04-27 05:23:00,45.5,28.0,29.92,WSW,248,2.7,3.6,50,0.00,,,0.00,WUHU216HW,2013-04-27 11:23:00,
2013-04-27 05:25:00,45.7,28.2,29.92,WSW,248,2.0,3.6,50,0.00,,,0.00,WUHU216HW,2013-04-27 11:25:00,
2013-04-27 05:26:00,45.7,28.2,29.93,WSW,248,2.0,3.6,50,0.00,,,0.00,WUHU216HW,2013-04-27 11:26:00,
2013-04-27 05:28:00,45.7,27.6,29.93,SW,225,2.5,3.6,49,0.00,,,0.00,WUHU216HW,2013-04-27 11:28:00,
2013-04-27 05:31:00,45.5,27.5,29.93,WSW,248,2.7,3.6,49,0.00,,,0.00,WUHU216HW,2013-04-27 11:31:00,
2013-04-27 05:33:00,45.2,27.1,29.93,WSW,248,1.6,4.0,49,0.00,,,0.00,WUHU216HW,2013-04-27 11:33:00,
2013-04-27 05:36:00,44.8,26.8,29.92,WSW,248,1.1,4.0,49,0.00,,,0.00,WUHU216HW,2013-04-27 11:36:00,
2013-04-27 05:38:00,44.6,27.2,29.93,WSW,248,3.1,4.0,50,0.00,,,0.00,WUHU216HW,2013-04-27 11:38:00,
2013-04-27 05:39:00,44.5,26.5,29.93,WSW,248,3.4,4.0,49,0.00,,,0.00,WUHU216HW,2013-04-27 11:39:00,
2013-04-27 05:41:00,44.3,26.8,29.92,West,270,2.5,4.0,50,0.00,,,0.00,WUHU216HW,2013-04-27 11:41:00,
2013-04-27 05:44:00,44.1,27.5,29.93,West,270,6.9,6.9,52,0.00,,,0.00,WUHU216HW,2013-04-27 11:44:00,
2013-04-27 05:46:00,43.9,27.5,29.93,WSW,248,3.8,6.9,52,0.00,,,0.00,WUHU216HW,2013-04-27 11:46:00,
2013-04-27 05:49:00,43.6,27.1,29.93,WSW,248,4.7,6.9,52,0.00,,,0.00,WUHU216HW,2013-04-27 11:49:00,
2013-04-27 05:51:00,43.4,27.4,29.93,WSW,248,6.9,6.9,53,0.00,,,0.00,WUHU216HW,2013-04-27 11:51:00,
2013-04-27 05:54:00,43.4,27.4,29.93,West,270,6.9,6.9,53,0.00,,,0.00,WUHU216HW,2013-04-27 11:54:00,
2013-04-27 05:56:00,43.2,27.2,29.94,WSW,248,6.9,6.9,53,0.00,,,0.00,WUHU216HW,2013-04-27 11:56:00,
2013-04-27 05:59:00,43.4,26.9,29.94,WSW,248,5.4,6.9,52,0.00,,,0.00,WUHU216HW,2013-04-27 11:59:00,
2013-04-27 06:01:00,43.6,27.1,29.94,WSW,248,6.3,7.4,52,0.00,,,0.00,WUHU216HW,2013-04-27 12:01:00,
2013-04-27 06:03:00,43.9,27.5,29.93,SW,225,6.7,7.4,52,0.00,,,0.00,WUHU216HW,2013-04-27 12:03:00,
2013-04-27 06:04:00,44.3,27.7,29.93,WSW,248,7.4,8.1,52,0.00,,,0.00,WUHU216HW,2013-04-27 12:04:00,
2013-04-27 06:05:00,44.3,27.7,29.93,WSW,248,6.9,8.1,52,0.00,,,0.00,WUHU216HW,2013-04-27 12:05:00,
2013-04-27 06:07:00,44.8,27.8,29.92,WSW,248,6.9,8.3,51,0.00,,,0.00,WUHU216HW,2013-04-27 12:07:00,
2013-04-27 06:08:00,45.0,28.0,29.92,WSW,248,8.7,8.7,51,0.00,,,0.00,WUHU216HW,2013-04-27 12:08:00,
2013-04-27 06:09:00,45.0,28.0,29.92,WSW,248,7.6,8.7,51,0.00,,,0.00,WUHU216HW,2013-04-27 12:09:00,
2013-04-27 06:10:00,45.2,28.1,29.92,WSW,248,8.3,8.7,51,0.00,,,0.00,WUHU216HW,2013-04-27 12:10:00,
2013-04-27 06:13:00,45.7,28.2,29.92,WSW,248,6.3,8.7,50,0.00,,,0.00,WUHU216HW,2013-04-27 12:13:00,
2013-04-27 06:14:00,45.9,28.4,29.92,WSW,248,6.3,8.7,50,0.00,,,0.00,WUHU216HW,2013-04-27 12:14:00,
2013-04-27 06:15:00,45.9,27.8,29.92,WSW,248,8.9,8.9,49,0.00,,,0.00,WUHU216HW,2013-04-27 12:15:00,
2013-04-27 06:18:00,46.1,27.9,29.92,WSW,248,4.7,8.9,49,0.00,,,0.00,WUHU216HW,2013-04-27 12:18:00,
2013-04-27 06:19:00,46.1,27.9,29.92,WSW,248,2.5,8.9,49,0.00,,,0.00,WUHU216HW,2013-04-27 12:19:00,
2013-04-27 06:20:00,46.1,27.9,29.93,WSW,248,2.5,8.9,49,0.00,,,0.00,WUHU216HW,2013-04-27 12:20:00,
2013-04-27 06:23:00,45.9,27.8,29.93,WSW,248,6.3,8.9,49,0.00,,,0.00,WUHU216HW,2013-04-27 12:23:00,
2013-04-27 06:24:00,45.7,27.6,29.93,WSW,248,6.0,8.9,49,0.00,,,0.00,WUHU216HW,2013-04-27 12:24:00,
2013-04-27 06:25:00,45.7,27.6,29.93,WSW,248,5.8,8.9,49,0.00,,,0.00,WUHU216HW,2013-04-27 12:25:00,
2013-04-27 06:28:00,45.5,27.5,29.92,WSW,248,6.9,6.9,49,0.00,,,0.00,WUHU216HW,2013-04-27 12:28:00,
2013-04-27 06:30:00,45.5,27.5,29.92,SW,225,5.1,6.9,49,0.00,,,0.00,WUHU216HW,2013-04-27 12:30:00,
2013-04-27 06:33:00,45.7,27.6,29.92,WSW,248,6.7,7.2,49,0.00,,,0.00,WUHU216HW,2013-04-27 12:33:00,
2013-04-27 06:35:00,45.7,27.6,29.92,WSW,248,6.0,7.2,49,0.00,,,0.00,WUHU216HW,2013-04-27 12:35:00,
2013-04-27 06:38:00,45.9,27.8,29.92,WSW,248,6.5,9.4,49,0.00,,,0.00,WUHU216HW,2013-04-27 12:38:00,
2013-04-27 06:39:00,45.9,27.8,29.92,WSW,248,6.7,9.4,49,0.00,,,0.00,WUHU216HW,2013-04-27 12:39:00,
2013-04-27 06:40:00,45.7,27.6,29.92,West,270,6.5,9.4,49,0.00,,,0.00,WUHU216HW,2013-04-27 12:40:00,
2013-04-27 06:44:00,45.7,27.6,29.92,SW,225,6.3,9.4,49,0.00,,,0.00,WUHU216HW,2013-04-27 12:44:00,
2013-04-27 06:45:00,45.5,27.5,29.92,WSW,248,5.8,9.4,49,0.00,,,0.00,WUHU216HW,2013-04-27 12:45:00,
2013-04-27 06:46:00,45.7,27.6,29.92,SW,225,6.9,9.4,49,0.00,,,0.00,WUHU216HW,2013-04-27 12:46:00,
2013-04-27 06:49:00,45.7,28.2,29.92,WSW,248,7.6,8.7,50,0.00,,,0.00,WUHU216HW,2013-04-27 12:49:00,
2013-04-27 06:50:00,45.5,28.0,29.92,WSW,248,6.9,8.7,50,0.00,,,0.00,WUHU216HW,2013-04-27 12:50:00,
2013-04-27 06:51:00,45.7,27.6,29.92,SSW,203,6.3,8.7,49,0.00,,,0.00,WUHU216HW,2013-04-27 12:51:00,
2013-04-27 06:54:00,46.1,27.9,29.91,WSW,248,6.7,9.2,49,0.00,,,0.00,WUHU216HW,2013-04-27 12:54:00,
2013-04-27 06:55:00,46.3,28.1,29.91,WSW,248,7.6,9.2,49,0.00,,,0.00,WUHU216HW,2013-04-27 12:55:00,
2013-04-27 06:56:00,46.4,28.3,29.91,WSW,248,8.5,9.2,49,0.00,,,0.00,WUHU216HW,2013-04-27 12:56:00,
2013-04-27 07:00:00,46.6,27.9,29.91,WSW,248,7.2,9.2,48,0.00,,,0.00,WUHU216HW,2013-04-27 13:00:00,
2013-04-27 07:01:00,46.6,28.5,29.91,WSW,248,6.7,9.2,49,0.00,,,0.00,WUHU216HW,2013-04-27 13:01:00,
2013-04-27 07:05:00,46.8,28.6,29.91,WSW,248,4.7,9.2,49,0.00,,,0.00,WUHU216HW,2013-04-27 13:05:00,
2013-04-27 07:06:00,46.8,28.6,29.91,West,270,6.9,9.2,49,0.00,,,0.00,WUHU216HW,2013-04-27 13:06:00,
2013-04-27 07:10:00,46.8,28.6,29.90,SSW,203,6.7,9.8,49,0.00,,,0.00,WUHU216HW,2013-04-27 13:10:00,
2013-04-27 07:11:00,47.0,28.7,29.90,SW,225,5.8,9.8,49,0.00,,,0.00,WUHU216HW,2013-04-27 13:11:00,
2013-04-27 07:15:00,47.7,28.4,29.90,WSW,248,7.2,9.8,47,0.00,,,0.00,WUHU216HW,2013-04-27 13:15:00,
2013-04-27 07:16:00,47.9,28.4,29.90,WSW,248,6.7,9.8,47,0.00,,,0.00,WUHU216HW,2013-04-27 13:16:00,
2013-04-27 07:17:00,48.1,28.6,29.90,WSW,248,6.9,9.8,47,0.00,,,0.00,WUHU216HW,2013-04-27 13:17:00,
2013-04-27 07:20:00,48.6,28.6,29.90,West,270,0.2,9.4,46,0.00,,,0.00,WUHU216HW,2013-04-27 13:20:00,
2013-04-27 07:21:00,49.0,29.0,29.90,WSW,248,3.1,9.4,46,0.00,,,0.00,WUHU216HW,2013-04-27 13:21:00,
2013-04-27 07:22:00,49.0,28.5,29.90,West,270,6.9,9.4,45,0.00,,,0.00,WUHU216HW,2013-04-27 13:22:00,
2013-04-27 07:25:00,49.7,28.5,29.90,WNW,293,1.6,7.2,44,0.00,,,0.00,WUHU216HW,2013-04-27 13:25:00,
2013-04-27 07:26:00,50.0,28.4,29.90,SW,225,4.0,6.9,43,0.00,,,0.00,WUHU216HW,2013-04-27 13:26:00,
2013-04-27 07:27:00,50.0,28.4,29.90,SSW,203,2.9,6.9,43,0.00,,,0.00,WUHU216HW,2013-04-27 13:27:00,
2013-04-27 07:30:00,50.8,27.8,29.90,WSW,248,1.8,6.9,41,0.00,,,0.00,WUHU216HW,2013-04-27 13:30:00,
2013-04-27 07:31:00,51.1,27.6,29.90,West,270,10.5,12.1,40,0.00,,,0.00,WUHU216HW,2013-04-27 13:31:00,
2013-04-27 07:32:00,51.3,27.8,29.90,West,270,9.2,12.1,40,0.00,,,0.00,WUHU216HW,2013-04-27 13:32:00,
2013-04-27 07:35:00,52.6,28.9,29.90,SW,225,3.1,12.1,40,0.00,,,0.00,WUHU216HW,2013-04-27 13:35:00,
2013-04-27 07:37:00,52.9,29.3,29.90,SSE,158,0.9,12.1,40,0.00,,,0.00,WUHU216HW,2013-04-27 13:37:00,
2013-04-27 07:40:00,53.5,28.4,29.90,WSW,248,2.2,12.1,38,0.00,,,0.00,WUHU216HW,2013-04-27 13:40:00,
2013-04-27 07:42:00,53.5,28.4,29.90,WNW,293,6.9,9.2,38,0.00,,,0.00,WUHU216HW,2013-04-27 13:42:00,
2013-04-27 07:43:00,53.6,27.8,29.90,WSW,248,4.7,10.5,37,0.00,,,0.00,WUHU216HW,2013-04-27 13:43:00,
2013-04-27 07:48:00,54.0,27.5,29.90,SW,225,9.8,12.3,36,0.00,,,0.00,WUHU216HW,2013-04-27 13:48:00,
2013-04-27 07:53:00,55.3,29.3,29.90,ENE,68,1.6,17.9,37,0.00,,,0.00,WUHU216HW,2013-04-27 13:53:00,
2013-04-27 07:54:00,55.3,29.3,29.90,NE,45,4.5,17.9,37,0.00,,,0.00,WUHU216HW,2013-04-27 13:54:00,
2013-04-27 07:58:00,54.9,29.6,29.91,East,90,6.3,10.5,38,0.00,,,0.00,WUHU216HW,2013-04-27 13:58:00,
2013-04-27 07:59:00,54.7,29.4,29.91,East,90,6.3,8.9,38,0.00,,,0.00,WUHU216HW,2013-04-27 13:59:00,
2013-04-27 08:03:00,55.4,27.3,29.91,SSW,203,3.4,8.5,34,0.00,,,0.00,WUHU216HW,2013-04-27 14:03:00,
2013-04-27 08:04:00,55.4,27.3,29.91,SSE,158,2.9,8.5,34,0.00,,,0.00,WUHU216HW,2013-04-27 14:04:00,
2013-04-27 08:08:00,55.6,30.2,29.91,East,90,1.8,8.7,38,0.00,,,0.00,WUHU216HW,2013-04-27 14:08:00,
2013-04-27 08:09:00,55.6,30.2,29.91,East,90,1.8,8.7,38,0.00,,,0.00,WUHU216HW,2013-04-27 14:09:00,
2013-04-27 08:14:00,55.6,30.2,29.91,SE,135,13.9,14.1,38,0.00,,,0.00,WUHU216HW,2013-04-27 14:14:00,
2013-04-27 08:15:00,55.4,30.1,29.91,SSE,158,7.6,14.1,38,0.00,,,0.00,WUHU216HW,2013-04-27 14:15:00,
2013-04-27 08:19:00,55.6,30.2,29.91,South,180,8.1,14.1,38,0.00,,,0.00,WUHU216HW,2013-04-27 14:19:00,
2013-04-27 08:20:00,55.4,30.1,29.91,SSW,203,5.4,14.1,38,0.00,,,0.00,WUHU216HW,2013-04-27 14:20:00,
2013-04-27 08:24:00,55.6,31.0,29.91,SW,225,6.7,11.0,39,0.00,,,0.00,WUHU216HW,2013-04-27 14:24:00,
2013-04-27 08:25:00,55.6,31.0,29.91,South,180,10.1,11.0,39,0.00,,,0.00,WUHU216HW,2013-04-27 14:25:00,
2013-04-27 08:29:00,55.6,31.0,29.91,South,180,4.9,10.1,39,0.00,,,0.00,WUHU216HW,2013-04-27 14:29:00,
2013-04-27 08:30:00,55.8,31.2,29.91,SSE,158,7.4,10.1,39,0.00,,,0.00,WUHU216HW,2013-04-27 14:30:00,
2013-04-27 08:34:00,56.0,29.2,29.91,SSE,158,6.5,11.6,36,0.00,,,0.00,WUHU216HW,2013-04-27 14:34:00,
2013-04-27 08:35:00,56.2,30.1,29.91,South,180,8.7,11.6,37,0.00,,,0.00,WUHU216HW,2013-04-27 14:35:00,
2013-04-27 08:39:00,56.7,31.2,29.92,SSE,158,1.6,11.6,38,0.00,,,0.00,WUHU216HW,2013-04-27 14:39:00,
2013-04-27 08:40:00,56.7,31.2,29.92,South,180,3.4,11.6,38,0.00,,,0.00,WUHU216HW,2013-04-27 14:40:00,
2013-04-27 08:41:00,56.9,31.4,29.92,South,180,4.0,11.6,38,0.00,,,0.00,WUHU216HW,2013-04-27 14:41:00,
2013-04-27 08:44:00,57.2,31.1,29.92,SSE,158,7.6,10.3,37,0.00,,,0.00,WUHU216HW,2013-04-27 14:44:00,
2013-04-27 08:45:00,57.2,31.1,29.91,South,180,9.8,10.3,37,0.00,,,0.00,WUHU216HW,2013-04-27 14:45:00,
2013-04-27 08:46:00,57.4,31.1,29.91,SSE,158,9.8,10.5,37,0.00,,,0.00,WUHU216HW,2013-04-27 14:46:00,
2013-04-27 08:50:00,57.8,30.1,29.90,SW,225,9.4,12.1,35,0.00,,,0.00,WUHU216HW,2013-04-27 14:50:00,
2013-04-27 08:51:00,57.8,30.8,29.91,SW,225,9.8,12.1,36,0.00,,,0.00,WUHU216HW,2013-04-27 14:51:00,
2013-04-27 08:55:00,58.1,29.0,29.91,East,90,8.7,12.1,33,0.00,,,0.00,WUHU216HW,2013-04-27 14:55:00,
2013-04-27 08:56:00,58.1,29.7,29.90,East,90,3.8,12.1,34,0.00,,,0.00,WUHU216HW,2013-04-27 14:56:00,
2013-04-27 09:00:00,58.1,29.7,29.90,SE,135,6.5,9.8,34,0.00,,,0.00,WUHU216HW,2013-04-27 15:00:00,
2013-04-27 09:01:00,58.1,29.7,29.90,ESE,113,4.0,9.8,34,0.00,,,0.00,WUHU216HW,2013-04-27 15:01:00,
2013-04-27 09:05:00,58.3,29.9,29.90,South,180,7.2,9.2,34,0.00,,,0.00,WUHU216HW,2013-04-27 15:05:00,
2013-04-27 09:06:00,58.3,29.2,29.90,SSW,203,9.2,9.2,33,0.00,,,0.00,WUHU216HW,2013-04-27 15:06:00,
2013-04-27 09:07:00,58.3,29.2,29.90,South,180,7.2,9.2,33,0.00,,,0.00,WUHU216HW,2013-04-27 15:07:00,
2013-04-27 09:10:00,58.5,27.9,29.90,NNW,338,5.1,9.2,31,0.00,,,0.00,WUHU216HW,2013-04-27 15:10:00,
2013-04-27 09:11:00,58.7,28.1,29.90,West,270,3.4,9.2,31,0.00,,,0.00,WUHU216HW,2013-04-27 15:11:00,
2013-04-27 09:12:00,58.7,28.1,29.90,WSW,248,3.8,9.2,31,0.00,,,0.00,WUHU216HW,2013-04-27 15:12:00,
2013-04-27 09:15:00,58.9,29.0,29.91,SSW,203,7.8,9.2,32,0.00,,,0.00,WUHU216HW,2013-04-27 15:15:00,
2013-04-27 09:16:00,58.9,29.0,29.91,SE,135,2.5,9.2,32,0.00,,,0.00,WUHU216HW,2013-04-27 15:16:00,
2013-04-27 09:17:00,58.9,29.0,29.91,South,180,2.5,9.2,32,0.00,,,0.00,WUHU216HW,2013-04-27 15:17:00,
2013-04-27 09:20:00,59.4,28.7,29.91,WSW,248,11.4,11.4,31,0.00,,,0.00,WUHU216HW,2013-04-27 15:20:00,
2013-04-27 09:21:00,59.4,28.7,29.91,WSW,248,7.6,11.4,31,0.00,,,0.00,WUHU216HW,2013-04-27 15:21:00,
2013-04-27 09:22:00,59.4,29.4,29.91,SW,225,8.5,11.4,32,0.00,,,0.00,WUHU216HW,2013-04-27 15:22:00,
2013-04-27 09:23:00,59.4,29.4,29.91,SSW,203,4.0,11.4,32,0.00,,,0.00,WUHU216HW,2013-04-27 15:23:00,
2013-04-27 09:26:00,59.8,30.4,29.91,SSE,158,7.2,11.4,33,0.00,,,0.00,WUHU216HW,2013-04-27 15:26:00,
2013-04-27 09:27:00,59.9,30.6,29.90,SSE,158,6.9,11.4,33,0.00,,,0.00,WUHU216HW,2013-04-27 15:27:00,
2013-04-27 09:28:00,59.9,30.6,29.90,SE,135,9.6,11.4,33,0.00,,,0.00,WUHU216HW,2013-04-27 15:28:00,
2013-04-27 09:31:00,60.1,30.7,29.90,SE,135,5.4,9.6,33,0.00,,,0.00,WUHU216HW,2013-04-27 15:31:00,
2013-04-27 09:32:00,60.1,30.7,29.90,ESE,113,3.8,9.6,33,0.00,,,0.00,WUHU216HW,2013-04-27 15:32:00,
2013-04-27 09:33:00,60.3,30.9,29.90,SSE,158,4.7,9.6,33,0.00,,,0.00,WUHU216HW,2013-04-27 15:33:00,
2013-04-27 09:36:00,60.8,30.6,29.91,SSW,203,3.6,9.6,32,0.00,,,0.00,WUHU216HW,2013-04-27 15:36:00,
2013-04-27 09:37:00,61.0,30.1,29.91,SE,135,5.4,9.6,31,0.00,,,0.00,WUHU216HW,2013-04-27 15:37:00,
2013-04-27 09:38:00,61.2,29.5,29.90,ESE,113,2.5,9.6,30,0.00,,,0.00,WUHU216HW,2013-04-27 15:38:00,
2013-04-27 09:41:00,61.6,30.5,29.90,East,90,1.6,7.6,31,0.00,,,0.00,WUHU216HW,2013-04-27 15:41:00,
2013-04-27 09:42:00,61.6,30.5,29.90,SE,135,2.0,7.6,31,0.00,,,0.00,WUHU216HW,2013-04-27 15:42:00,
2013-04-27 09:43:00,61.9,30.9,29.90,SW,225,1.8,7.6,31,0.00,,,0.00,WUHU216HW,2013-04-27 15:43:00,
2013-04-27 09:46:00,62.3,30.4,29.91,SSW,203,3.4,6.3,30,0.00,,,0.00,WUHU216HW,2013-04-27 15:46:00,
2013-04-27 09:47:00,62.3,30.4,29.91,SSW,203,2.0,6.3,30,0.00,,,0.00,WUHU216HW,2013-04-27 15:47:00,
2013-04-27 09:48:00,62.5,30.6,29.90,South,180,4.9,6.3,30,0.00,,,0.00,WUHU216HW,2013-04-27 15:48:00,
2013-04-27 09:49:00,62.6,30.8,29.90,SSE,158,4.9,6.3,30,0.00,,,0.00,WUHU216HW,2013-04-27 15:49:00,
2013-04-27 09:51:00,62.6,29.8,29.90,South,180,7.6,7.8,29,0.00,,,0.00,WUHU216HW,2013-04-27 15:51:00,
2013-04-27 09:52:00,62.8,30.0,29.90,WSW,248,8.5,9.2,29,0.00,,,0.00,WUHU216HW,2013-04-27 15:52:00,
2013-04-27 09:53:00,62.8,29.0,29.90,WSW,248,6.5,9.2,28,0.00,,,0.00,WUHU216HW,2013-04-27 15:53:00,
2013-04-27 09:54:00,62.8,28.0,29.90,SW,225,3.1,9.2,27,0.00,,,0.00,WUHU216HW,2013-04-27 15:54:00,
2013-04-27 09:57:00,62.8,29.0,29.90,WSW,248,9.6,9.6,28,0.00,,,0.00,WUHU216HW,2013-04-27 15:57:00,
2013-04-27 09:58:00,63.0,28.2,29.90,WNW,293,7.2,9.6,27,0.00,,,0.00,WUHU216HW,2013-04-27 15:58:00,
2013-04-27 09:59:00,63.0,28.2,29.90,NW,315,4.9,9.6,27,0.00,,,0.00,WUHU216HW,2013-04-27 15:59:00,
2013-04-27 10:02:00,63.2,30.3,29.90,South,180,7.6,9.6,29,0.00,,,0.00,WUHU216HW,2013-04-27 16:02:00,
2013-04-27 10:03:00,63.4,29.4,29.90,SSE,158,3.4,9.6,28,0.00,,,0.00,WUHU216HW,2013-04-27 16:03:00,
2013-04-27 10:04:00,63.5,29.6,29.90,SSW,203,2.5,9.6,28,0.00,,,0.00,WUHU216HW,2013-04-27 16:04:00,
2013-04-27 10:07:00,64.1,28.2,29.90,North,0,4.0,9.2,26,0.00,,,0.00,WUHU216HW,2013-04-27 16:07:00,
2013-04-27 10:08:00,64.1,27.2,29.90,North,0,6.0,9.2,25,0.00,,,0.00,WUHU216HW,2013-04-27 16:08:00,
2013-04-27 10:09:00,64.1,27.2,29.90,North,0,6.7,9.2,25,0.00,,,0.00,WUHU216HW,2013-04-27 16:09:00,
2013-04-27 10:12:00,63.5,26.7,29.90,East,90,1.8,7.8,25,0.00,,,0.00,WUHU216HW,2013-04-27 16:12:00,
2013-04-27 10:13:00,63.5,27.6,29.90,WNW,293,4.5,7.8,26,0.00,,,0.00,WUHU216HW,2013-04-27 16:13:00,
2013-04-27 10:14:00,63.7,28.8,29.90,WSW,248,3.1,7.8,27,0.00,,,0.00,WUHU216HW,2013-04-27 16:14:00,
2013-04-27 10:17:00,63.7,28.8,29.90,WSW,248,10.1,11.6,27,0.00,,,0.00,WUHU216HW,2013-04-27 16:17:00,
2013-04-27 10:18:00,63.7,27.8,29.90,WSW,248,4.9,11.6,26,0.00,,,0.00,WUHU216HW,2013-04-27 16:18:00,
2013-04-27 10:19:00,63.7,26.8,29.90,WNW,293,9.8,14.1,25,0.00,,,0.00,WUHU216HW,2013-04-27 16:19:00,
2013-04-27 10:22:00,63.4,26.6,29.90,WSW,248,18.1,18.1,25,0.00,,,0.00,WUHU216HW,2013-04-27 16:22:00,
2013-04-27 10:23:00,63.4,26.6,29.90,WSW,248,18.1,18.1,25,0.00,,,0.00,WUHU216HW,2013-04-27 16:23:00,
2013-04-27 10:24:00,63.4,28.5,29.90,North,0,9.4,18.1,27,0.00,,,0.00,WUHU216HW,2013-04-27 16:24:00,
2013-04-27 10:25:00,63.4,28.5,29.90,North,0,9.4,18.1,27,0.00,,,0.00,WUHU216HW,2013-04-27 16:25:00,
2013-04-27 10:28:00,63.7,27.8,29.90,NW,315,11.2,18.1,26,0.00,,,0.00,WUHU216HW,2013-04-27 16:28:00,
2013-04-27 10:29:00,63.9,29.0,29.90,West,270,10.3,18.1,27,0.00,,,0.00,WUHU216HW,2013-04-27 16:29:00,
2013-04-27 10:30:00,64.1,28.2,29.90,West,270,9.4,18.1,26,0.00,,,0.00,WUHU216HW,2013-04-27 16:30:00,
2013-04-27 10:33:00,64.1,27.2,29.90,WSW,248,6.9,17.2,25,0.00,,,0.00,WUHU216HW,2013-04-27 16:33:00,
2013-04-27 10:35:00,64.1,28.2,29.90,WNW,293,6.9,17.2,26,0.00,,,0.00,WUHU216HW,2013-04-27 16:35:00,
2013-04-27 10:39:00,64.1,27.2,29.90,NW,315,5.8,17.2,25,0.00,,,0.00,WUHU216HW,2013-04-27 16:39:00,
2013-04-27 10:40:00,63.7,27.8,29.90,NNW,338,2.5,17.2,26,0.00,,,0.00,WUHU216HW,2013-04-27 16:40:00,
2013-04-27 10:44:00,63.7,26.8,29.90,NW,315,6.0,13.0,25,0.00,,,0.00,WUHU216HW,2013-04-27 16:44:00,
2013-04-27 10:45:00,63.7,27.8,29.90,NW,315,6.9,13.2,26,0.00,,,0.00,WUHU216HW,2013-04-27 16:45:00,
2013-04-27 10:49:00,63.4,26.6,29.90,WNW,293,4.9,13.4,25,0.00,,,0.00,WUHU216HW,2013-04-27 16:49:00,
2013-04-27 10:50:00,63.4,28.5,29.89,WSW,248,12.5,13.4,27,0.00,,,0.00,WUHU216HW,2013-04-27 16:50:00,
2013-04-27 10:54:00,63.7,26.8,29.90,WSW,248,10.1,15.7,25,0.00,,,0.00,WUHU216HW,2013-04-27 16:54:00,
2013-04-27 10:55:00,63.5,26.7,29.90,WNW,293,13.4,20.1,25,0.00,,,0.00,WUHU216HW,2013-04-27 16:55:00,
2013-04-27 10:59:00,63.7,26.8,29.89,West,270,8.5,20.1,25,0.00,,,0.00,WUHU216HW,2013-04-27 16:59:00,
2013-04-27 11:00:00,63.9,28.0,29.89,NW,315,7.6,20.1,26,0.00,,,0.00,WUHU216HW,2013-04-27 17:00:00,
2013-04-27 11:01:00,63.9,27.0,29.89,WNW,293,9.2,20.1,25,0.00,,,0.00,WUHU216HW,2013-04-27 17:01:00,
2013-04-27 11:04:00,64.4,27.5,29.89,WSW,248,16.3,20.1,25,0.00,,,0.00,WUHU216HW,2013-04-27 17:04:00,
2013-04-27 11:06:00,64.4,27.5,29.89,WSW,248,10.7,17.7,25,0.00,,,0.00,WUHU216HW,2013-04-27 17:06:00,
2013-04-27 11:10:00,64.4,27.5,29.89,NW,315,7.8,17.7,25,0.00,,,0.00,WUHU216HW,2013-04-27 17:10:00,
2013-04-27 11:11:00,64.8,26.7,29.89,NW,315,8.9,17.7,24,0.00,,,0.00,WUHU216HW,2013-04-27 17:11:00,
2013-04-27 11:12:00,64.6,27.6,29.89,WNW,293,7.2,17.7,25,0.00,,,0.00,WUHU216HW,2013-04-27 17:12:00,
2013-04-27 11:16:00,65.2,28.1,29.89,NW,315,4.3,16.8,25,0.00,,,0.00,WUHU216HW,2013-04-27 17:16:00,
2013-04-27 11:17:00,65.2,28.1,29.89,NW,315,9.8,16.8,25,0.00,,,0.00,WUHU216HW,2013-04-27 17:17:00,
2013-04-27 11:21:00,65.0,27.9,29.89,NW,315,10.3,12.3,25,0.00,,,0.00,WUHU216HW,2013-04-27 17:21:00,
2013-04-27 11:22:00,65.0,27.9,29.89,NW,315,12.5,12.5,25,0.00,,,0.00,WUHU216HW,2013-04-27 17:22:00,
2013-04-27 11:26:00,65.0,27.9,29.89,West,270,2.5,12.5,25,0.00,,,0.00,WUHU216HW,2013-04-27 17:26:00,
2013-04-27 11:27:00,65.0,27.9,29.89,West,270,2.5,12.5,25,0.00,,,0.00,WUHU216HW,2013-04-27 17:27:00,
2013-04-27 11:31:00,65.7,28.5,29.89,WSW,248,14.5,15.4,25,0.00,,,0.00,WUHU216HW,2013-04-27 17:31:00,
2013-04-27 11:32:00,65.7,28.5,29.89,WSW,248,14.5,15.4,25,0.00,,,0.00,WUHU216HW,2013-04-27 17:32:00,
2013-04-27 11:37:00,65.2,26.1,29.89,WNW,293,5.1,17.4,23,0.00,,,0.00,WUHU216HW,2013-04-27 17:37:00,
2013-04-27 11:38:00,65.0,26.9,29.89,NW,315,5.1,17.4,24,0.00,,,0.00,WUHU216HW,2013-04-27 17:38:00,
2013-04-27 11:42:00,64.6,26.7,29.89,WNW,293,1.6,17.4,24,0.00,,,0.00,WUHU216HW,2013-04-27 17:42:00,
2013-04-27 11:43:00,64.8,27.7,29.89,West,270,4.0,17.4,25,0.00,,,0.00,WUHU216HW,2013-04-27 17:43:00,
2013-04-27 11:47:00,65.5,28.4,29.89,WSW,248,6.3,10.5,25,0.00,,,0.00,WUHU216HW,2013-04-27 17:47:00,
2013-04-27 11:48:00,65.5,28.4,29.89,NW,315,3.4,10.5,25,0.00,,,0.00,WUHU216HW,2013-04-27 17:48:00,
2013-04-27 11:52:00,66.1,28.8,29.89,West,270,6.9,10.5,25,0.00,,,0.00,WUHU216HW,2013-04-27 17:52:00,
2013-04-27 11:53:00,66.1,27.8,29.89,West,270,9.4,10.5,24,0.00,,,0.00,WUHU216HW,2013-04-27 17:53:00,
2013-04-27 11:57:00,66.1,27.8,29.89,WNW,293,6.5,12.8,24,0.00,,,0.00,WUHU216HW,2013-04-27 17:57:00,
2013-04-27 11:58:00,66.1,28.8,29.89,SW,225,7.8,12.8,25,0.00,,,0.00,WUHU216HW,2013-04-27 17:58:00,
2013-04-27 11:59:00,66.2,29.0,29.89,South,180,6.0,12.8,25,0.00,,,0.00,WUHU216HW,2013-04-27 17:59:00,
2013-04-27 12:02:00,67.0,29.6,29.88,WSW,248,3.6,12.8,25,0.00,,,0.00,WUHU216HW,2013-04-27 18:02:00,
2013-04-27 12:03:00,67.3,29.9,29.88,WSW,248,5.4,12.8,25,0.00,,,0.00,WUHU216HW,2013-04-27 18:03:00,
2013-04-27 12:04:00,67.1,28.7,29.88,West,270,4.0,12.8,24,0.00,,,0.00,WUHU216HW,2013-04-27 18:04:00,
2013-04-27 12:07:00,67.3,28.9,29.88,West,270,6.3,7.8,24,0.00,,,0.00,WUHU216HW,2013-04-27 18:07:00,
2013-04-27 12:08:00,67.1,28.7,29.88,WSW,248,11.2,11.2,24,0.00,,,0.00,WUHU216HW,2013-04-27 18:08:00,
2013-04-27 12:09:00,67.1,28.7,29.88,WSW,248,2.0,11.2,24,0.00,,,0.00,WUHU216HW,2013-04-27 18:09:00,
2013-04-27 12:12:00,67.1,27.7,29.87,WNW,293,4.0,11.2,23,0.00,,,0.00,WUHU216HW,2013-04-27 18:12:00,
2013-04-27 12:13:00,67.0,27.6,29.87,West,270,3.4,11.2,23,0.00,,,0.00,WUHU216HW,2013-04-27 18:13:00,
2013-04-27 12:14:00,67.0,27.6,29.87,WSW,248,6.5,11.2,23,0.00,,,0.00,WUHU216HW,2013-04-27 18:14:00,
2013-04-27 12:17:00,66.8,27.5,29.87,WNW,293,8.7,11.2,23,0.00,,,0.00,WUHU216HW,2013-04-27 18:17:00,
2013-04-27 12:18:00,66.8,27.5,29.87,WNW,293,5.6,11.2,23,0.00,,,0.00,WUHU216HW,2013-04-27 18:18:00,
2013-04-27 12:19:00,66.6,27.3,29.87,NNW,338,4.3,8.7,23,0.00,,,0.00,WUHU216HW,2013-04-27 18:19:00,
2013-04-27 12:23:00,67.0,29.6,29.87,WSW,248,5.4,8.7,25,0.00,,,0.00,WUHU216HW,2013-04-27 18:23:00,
2013-04-27 12:24:00,67.3,28.9,29.87,WSW,248,2.2,8.7,24,0.00,,,0.00,WUHU216HW,2013-04-27 18:24:00,
2013-04-27 12:28:00,68.6,30.0,29.87,SSW,203,9.2,10.1,24,0.00,,,0.00,WUHU216HW,2013-04-27 18:28:00,
2013-04-27 12:29:00,69.3,29.6,29.87,SW,225,9.2,10.1,23,0.00,,,0.00,WUHU216HW,2013-04-27 18:29:00,
2013-04-27 12:30:00,69.5,29.7,29.87,SW,225,12.3,12.3,23,0.00,,,0.00,WUHU216HW,2013-04-27 18:30:00,
2013-04-27 12:33:00,70.6,28.6,29.86,West,270,4.5,13.4,21,0.00,,,0.00,WUHU216HW,2013-04-27 18:33:00,
2013-04-27 12:34:00,70.7,27.7,29.86,NNW,338,7.2,13.4,20,0.00,,,0.00,WUHU216HW,2013-04-27 18:34:00,
2013-04-27 12:35:00,70.7,26.1,29.86,NNW,338,5.4,13.4,19,0.00,,,0.00,WUHU216HW,2013-04-27 18:35:00,
2013-04-27 12:38:00,70.2,29.4,29.86,SW,225,2.7,13.4,22,0.00,,,0.00,WUHU216HW,2013-04-27 18:38:00,
2013-04-27 12:39:00,70.4,25.8,29.86,NNE,23,1.3,13.4,19,0.00,,,0.00,WUHU216HW,2013-04-27 18:39:00,
2013-04-27 12:40:00,70.2,28.3,29.86,ESE,113,4.0,13.4,21,0.00,,,0.00,WUHU216HW,2013-04-27 18:40:00,
2013-04-27 12:43:00,70.0,28.2,29.85,ENE,68,9.4,11.9,21,0.00,,,0.00,WUHU216HW,2013-04-27 18:43:00,
2013-04-27 12:44:00,69.7,28.9,29.85,North,0,17.7,17.7,22,0.00,,,0.00,WUHU216HW,2013-04-27 18:44:00,
2013-04-27 12:45:00,69.7,27.9,29.85,NNE,23,8.5,17.7,21,0.00,,,0.00,WUHU216HW,2013-04-27 18:45:00,
2013-04-27 12:46:00,69.3,28.5,29.85,North,0,6.3,17.7,22,0.00,,,0.00,WUHU216HW,2013-04-27 18:46:00,
2013-04-27 12:48:00,68.9,28.3,29.85,NNW,338,9.2,17.7,22,0.00,,,0.00,WUHU216HW,2013-04-27 18:48:00,
2013-04-27 12:50:00,68.8,27.1,29.85,NE,45,4.9,17.7,21,0.00,,,0.00,WUHU216HW,2013-04-27 18:50:00,
2013-04-27 12:51:00,68.8,28.2,29.85,NE,45,5.6,17.7,22,0.00,,,0.00,WUHU216HW,2013-04-27 18:51:00,
2013-04-27 12:53:00,68.6,28.0,29.85,ENE,68,9.2,17.7,22,0.00,,,0.00,WUHU216HW,2013-04-27 18:53:00,
2013-04-27 12:55:00,68.6,28.0,29.85,ENE,68,7.2,11.4,22,0.00,,,0.00,WUHU216HW,2013-04-27 18:55:00,
2013-04-27 12:56:00,68.6,28.0,29.85,ESE,113,5.6,11.0,22,0.00,,,0.00,WUHU216HW,2013-04-27 18:56:00,
2013-04-27 12:58:00,68.9,27.3,29.84,NE,45,7.2,11.0,21,0.00,,,0.00,WUHU216HW,2013-04-27 18:58:00,
2013-04-27 13:00:00,68.8,27.1,29.84,NE,45,5.1,11.0,21,0.00,,,0.00,WUHU216HW,2013-04-27 19:00:00,
2013-04-27 13:01:00,68.8,27.1,29.84,NE,45,3.4,11.0,21,0.00,,,0.00,WUHU216HW,2013-04-27 19:01:00,
2013-04-27 13:04:00,68.4,27.8,29.84,East,90,6.9,9.4,22,0.00,,,0.00,WUHU216HW,2013-04-27 19:04:00,
2013-04-27 13:05:00,68.2,27.7,29.84,East,90,12.5,12.5,22,0.00,,,0.00,WUHU216HW,2013-04-27 19:05:00,
2013-04-27 13:06:00,68.0,27.5,29.83,East,90,14.3,14.3,22,0.00,,,0.00,WUHU216HW,2013-04-27 19:06:00,
2013-04-27 13:09:00,67.9,26.4,29.83,North,0,5.8,15.0,21,0.00,,,0.00,WUHU216HW,2013-04-27 19:09:00,
2013-04-27 13:10:00,67.7,26.2,29.83,WSW,248,1.1,15.0,21,0.00,,,0.00,WUHU216HW,2013-04-27 19:10:00,
2013-04-27 13:11:00,67.7,26.2,29.83,NE,45,1.8,15.0,21,0.00,,,0.00,WUHU216HW,2013-04-27 19:11:00,
2013-04-27 13:12:00,67.9,27.4,29.83,SE,135,6.0,15.0,22,0.00,,,0.00,WUHU216HW,2013-04-27 19:12:00,
2013-04-27 13:14:00,68.6,27.0,29.83,ENE,68,6.7,15.0,21,0.00,,,0.00,WUHU216HW,2013-04-27 19:14:00,
2013-04-27 13:15:00,69.1,27.5,29.83,NNE,23,16.8,16.8,21,0.00,,,0.00,WUHU216HW,2013-04-27 19:15:00,
2013-04-27 13:16:00,69.3,27.5,29.83,NE,45,10.1,16.8,21,0.00,,,0.00,WUHU216HW,2013-04-27 19:16:00,
2013-04-27 13:17:00,69.5,27.7,29.83,NE,45,7.6,16.8,21,0.00,,,0.00,WUHU216HW,2013-04-27 19:17:00,
2013-04-27 13:19:00,69.5,25.1,29.83,North,0,9.6,16.8,19,0.00,,,0.00,WUHU216HW,2013-04-27 19:19:00,
2013-04-27 13:21:00,70.2,25.7,29.83,West,270,6.7,16.8,19,0.00,,,0.00,WUHU216HW,2013-04-27 19:21:00,
2013-04-27 13:22:00,70.2,25.7,29.83,West,270,5.1,16.8,19,0.00,,,0.00,WUHU216HW,2013-04-27 19:22:00,
2013-04-27 13:24:00,70.0,24.0,29.83,NW,315,6.3,16.8,18,0.00,,,0.00,WUHU216HW,2013-04-27 19:24:00,
2013-04-27 13:26:00,69.8,23.8,29.82,NW,315,10.3,12.1,18,0.00,,,0.00,WUHU216HW,2013-04-27 19:26:00,
2013-04-27 13:27:00,69.8,23.8,29.82,NW,315,17.4,17.4,18,0.00,,,0.00,WUHU216HW,2013-04-27 19:27:00,
2013-04-27 13:29:00,70.0,24.0,29.82,West,270,17.2,19.2,18,0.00,,,0.00,WUHU216HW,2013-04-27 19:29:00,
2013-04-27 13:31:00,69.7,23.6,29.82,NNW,338,20.4,23.3,18,0.00,,,0.00,WUHU216HW,2013-04-27 19:31:00,
2013-04-27 13:32:00,69.5,23.5,29.82,NNW,338,15.4,23.3,18,0.00,,,0.00,WUHU216HW,2013-04-27 19:32:00,
2013-04-27 13:33:00,69.5,25.1,29.82,NNW,338,16.3,23.3,19,0.00,,,0.00,WUHU216HW,2013-04-27 19:33:00,
2013-04-27 13:34:00,69.8,23.8,29.82,NNW,338,16.1,23.3,18,0.00,,,0.00,WUHU216HW,2013-04-27 19:34:00,
2013-04-27 13:36:00,70.4,25.8,29.82,NNW,338,10.3,23.3,19,0.00,,,0.00,WUHU216HW,2013-04-27 19:36:00,
2013-04-27 13:37:00,70.6,22.7,29.82,NNW,338,15.2,23.3,17,0.00,,,0.00,WUHU216HW,2013-04-27 19:37:00,
2013-04-27 13:38:00,70.7,24.5,29.82,NW,315,18.6,23.3,18,0.00,,,0.00,WUHU216HW,2013-04-27 19:38:00,
2013-04-27 13:40:00,71.5,23.4,29.82,WNW,293,18.6,23.3,17,0.00,,,0.00,WUHU216HW,2013-04-27 19:40:00,
2013-04-27 13:42:00,70.9,24.7,29.82,NW,315,13.9,19.9,18,0.00,,,0.00,WUHU216HW,2013-04-27 19:42:00,
2013-04-27 13:43:00,70.9,24.7,29.82,WNW,293,16.6,19.9,18,0.00,,,0.00,WUHU216HW,2013-04-27 19:43:00,
2013-04-27 13:45:00,71.1,24.8,29.82,WSW,248,12.5,19.9,18,0.00,,,0.00,WUHU216HW,2013-04-27 19:45:00,
2013-04-27 13:47:00,71.3,24.9,29.82,NW,315,14.5,19.9,18,0.00,,,0.00,WUHU216HW,2013-04-27 19:47:00,
2013-04-27 13:48:00,71.5,25.0,29.82,WSW,248,12.1,19.9,18,0.00,,,0.00,WUHU216HW,2013-04-27 19:48:00,
2013-04-27 13:50:00,71.6,25.2,29.81,NW,315,15.4,19.9,18,0.00,,,0.00,WUHU216HW,2013-04-27 19:50:00,
2013-04-27 13:52:00,71.6,25.2,29.81,WNW,293,11.2,19.9,18,0.00,,,0.00,WUHU216HW,2013-04-27 19:52:00,
2013-04-27 13:53:00,71.6,25.2,29.81,West,270,13.2,16.6,18,0.00,,,0.00,WUHU216HW,2013-04-27 19:53:00,
2013-04-27 13:55:00,71.6,23.6,29.81,West,270,12.3,16.3,17,0.00,,,0.00,WUHU216HW,2013-04-27 19:55:00,
2013-04-27 13:57:00,71.6,23.6,29.82,West,270,17.2,21.0,17,0.00,,,0.00,WUHU216HW,2013-04-27 19:57:00,
2013-04-27 13:58:00,71.5,23.4,29.82,WSW,248,17.7,21.0,17,0.00,,,0.00,WUHU216HW,2013-04-27 19:58:00,
2013-04-27 14:00:00,71.3,23.3,29.81,West,270,18.1,21.0,17,0.00,,,0.00,WUHU216HW,2013-04-27 20:00:00,
2013-04-27 14:02:00,71.6,25.2,29.81,WSW,248,13.0,21.0,18,0.00,,,0.00,WUHU216HW,2013-04-27 20:02:00,
2013-04-27 14:03:00,71.6,25.2,29.81,WNW,293,10.7,21.0,18,0.00,,,0.00,WUHU216HW,2013-04-27 20:03:00,
2013-04-27 14:04:00,72.0,23.9,29.82,West,270,16.1,22.8,17,0.00,,,0.00,WUHU216HW,2013-04-27 20:04:00,
2013-04-27 14:05:00,72.4,24.2,29.81,West,270,8.7,22.8,17,0.00,,,0.00,WUHU216HW,2013-04-27 20:05:00,
2013-04-27 14:08:00,72.2,24.0,29.81,SW,225,6.3,22.8,17,0.00,,,0.00,WUHU216HW,2013-04-27 20:08:00,
2013-04-27 14:09:00,72.2,24.0,29.81,WSW,248,7.6,22.8,17,0.00,,,0.00,WUHU216HW,2013-04-27 20:09:00,
2013-04-27 14:10:00,72.4,25.8,29.81,WSW,248,12.3,22.8,18,0.00,,,0.00,WUHU216HW,2013-04-27 20:10:00,
2013-04-27 14:13:00,72.5,26.0,29.81,West,270,10.7,22.8,18,0.00,,,0.00,WUHU216HW,2013-04-27 20:13:00,
2013-04-27 14:14:00,72.5,24.4,29.81,WSW,248,16.8,17.9,17,0.00,,,0.00,WUHU216HW,2013-04-27 20:14:00,
2013-04-27 14:15:00,72.4,22.6,29.81,West,270,24.4,24.4,16,0.00,,,0.00,WUHU216HW,2013-04-27 20:15:00,
2013-04-27 14:18:00,72.0,23.9,29.81,West,270,22.8,24.4,17,0.00,,,0.00,WUHU216HW,2013-04-27 20:18:00,
2013-04-27 14:19:00,71.8,23.8,29.82,West,270,23.3,24.4,17,0.00,,,0.00,WUHU216HW,2013-04-27 20:19:00,
2013-04-27 14:20:00,71.6,22.0,29.81,WNW,293,21.5,24.4,16,0.00,,,0.00,WUHU216HW,2013-04-27 20:20:00,
2013-04-27 14:23:00,71.3,23.3,29.82,WNW,293,18.6,24.4,17,0.00,,,0.00,WUHU216HW,2013-04-27 20:23:00,
2013-04-27 14:24:00,70.9,23.1,29.82,West,270,14.5,24.4,17,0.00,,,0.00,WUHU216HW,2013-04-27 20:24:00,
2013-04-27 14:25:00,70.7,22.9,29.81,WNW,293,17.2,23.3,17,0.00,,,0.00,WUHU216HW,2013-04-27 20:25:00,
2013-04-27 14:28:00,70.6,24.3,29.81,West,270,12.8,23.3,18,0.00,,,0.00,WUHU216HW,2013-04-27 20:28:00,
2013-04-27 14:29:00,70.7,24.5,29.81,NW,315,13.4,23.3,18,0.00,,,0.00,WUHU216HW,2013-04-27 20:29:00,
2013-04-27 14:30:00,70.9,24.7,29.81,NW,315,14.1,23.3,18,0.00,,,0.00,WUHU216HW,2013-04-27 20:30:00,
2013-04-27 14:33:00,70.9,23.1,29.81,NW,315,14.3,19.9,17,0.00,,,0.00,WUHU216HW,2013-04-27 20:33:00,
2013-04-27 14:34:00,71.1,23.1,29.81,WNW,293,17.2,19.9,17,0.00,,,0.00,WUHU216HW,2013-04-27 20:34:00,
2013-04-27 14:35:00,70.9,23.1,29.81,West,270,19.5,19.9,17,0.00,,,0.00,WUHU216HW,2013-04-27 20:35:00,
2013-04-27 14:36:00,70.9,23.1,29.81,WNW,293,11.9,22.1,17,0.00,,,0.00,WUHU216HW,2013-04-27 20:36:00,
2013-04-27 14:39:00,70.9,24.7,29.81,WNW,293,16.3,22.1,18,0.00,,,0.00,WUHU216HW,2013-04-27 20:39:00,
2013-04-27 14:40:00,71.1,23.1,29.81,West,270,15.4,22.1,17,0.00,,,0.00,WUHU216HW,2013-04-27 20:40:00,
2013-04-27 14:41:00,71.3,23.3,29.81,West,270,16.1,22.1,17,0.00,,,0.00,WUHU216HW,2013-04-27 20:41:00,
2013-04-27 14:44:00,71.6,23.6,29.81,West,270,10.5,22.1,17,0.00,,,0.00,WUHU216HW,2013-04-27 20:44:00,
2013-04-27 14:45:00,71.6,22.0,29.81,West,270,15.7,22.1,16,0.00,,,0.00,WUHU216HW,2013-04-27 20:45:00,
2013-04-27 14:46:00,71.6,22.0,29.81,WSW,248,12.1,20.4,16,0.00,,,0.00,WUHU216HW,2013-04-27 20:46:00,
2013-04-27 14:49:00,71.8,25.4,29.80,West,270,19.2,19.2,18,0.00,,,0.00,WUHU216HW,2013-04-27 20:49:00,
2013-04-27 14:50:00,72.0,23.9,29.81,NW,315,18.6,19.2,17,0.00,,,0.00,WUHU216HW,2013-04-27 20:50:00,
2013-04-27 14:51:00,72.4,24.2,29.80,NW,315,20.4,23.3,17,0.00,,,0.00,WUHU216HW,2013-04-27 20:51:00,
2013-04-27 14:54:00,72.5,24.4,29.80,NW,315,20.1,24.4,17,0.00,,,0.00,WUHU216HW,2013-04-27 20:54:00,
2013-04-27 14:55:00,72.4,22.6,29.81,West,270,21.3,25.3,16,0.00,,,0.00,WUHU216HW,2013-04-27 20:55:00,
2013-04-27 14:56:00,72.4,22.6,29.81,West,270,16.3,25.3,16,0.00,,,0.00,WUHU216HW,2013-04-27 20:56:00,
2013-04-27 14:59:00,71.1,21.5,29.81,West,270,22.6,25.3,16,0.00,,,0.00,WUHU216HW,2013-04-27 20:59:00,
2013-04-27 15:00:00,70.9,21.4,29.81,West,270,16.6,25.3,16,0.00,,,0.00,WUHU216HW,2013-04-27 21:00:00,
2013-04-27 15:01:00,70.9,21.4,29.81,West,270,19.7,25.3,16,0.00,,,0.00,WUHU216HW,2013-04-27 21:01:00,
2013-04-27 15:02:00,70.7,21.2,29.81,West,270,12.8,25.3,16,0.00,,,0.00,WUHU216HW,2013-04-27 21:02:00,
2013-04-27 15:04:00,70.6,22.7,29.81,WNW,293,16.8,25.3,17,0.00,,,0.00,WUHU216HW,2013-04-27 21:04:00,
2013-04-27 15:05:00,70.7,21.2,29.81,WSW,248,18.1,23.0,16,0.00,,,0.00,WUHU216HW,2013-04-27 21:05:00,
2013-04-27 15:06:00,70.9,23.1,29.80,WNW,293,12.8,23.0,17,0.00,,,0.00,WUHU216HW,2013-04-27 21:06:00,
2013-04-27 15:07:00,70.9,21.4,29.80,West,270,17.4,23.0,16,0.00,,,0.00,WUHU216HW,2013-04-27 21:07:00,
2013-04-27 15:09:00,70.9,21.4,29.80,WNW,293,12.8,23.0,16,0.00,,,0.00,WUHU216HW,2013-04-27 21:09:00,
2013-04-27 15:10:00,70.9,21.4,29.80,West,270,16.3,23.0,16,0.00,,,0.00,WUHU216HW,2013-04-27 21:10:00,
2013-04-27 15:11:00,70.9,23.1,29.80,West,270,22.1,23.0,17,0.00,,,0.00,WUHU216HW,2013-04-27 21:11:00,
2013-04-27 15:12:00,70.9,23.1,29.80,WSW,248,20.4,23.0,17,0.00,,,0.00,WUHU216HW,2013-04-27 21:12:00,
2013-04-27 15:14:00,71.1,21.5,29.80,WSW,248,15.0,24.6,16,0.00,,,0.00,WUHU216HW,2013-04-27 21:14:00,
2013-04-27 15:16:00,71.3,21.7,29.80,NW,315,16.3,24.6,16,0.00,,,0.00,WUHU216HW,2013-04-27 21:16:00,
2013-04-27 15:17:00,71.1,21.5,29.79,NW,315,17.2,24.6,16,0.00,,,0.00,WUHU216HW,2013-04-27 21:17:00,
2013-04-27 15:20:00,70.9,21.4,29.80,WSW,248,13.2,27.1,16,0.00,,,0.00,WUHU216HW,2013-04-27 21:20:00,
2013-04-27 15:21:00,70.9,19.8,29.80,WNW,293,23.3,27.1,15,0.00,,,0.00,WUHU216HW,2013-04-27 21:21:00,
2013-04-27 15:22:00,70.9,19.8,29.80,NW,315,23.0,27.1,15,0.00,,,0.00,WUHU216HW,2013-04-27 21:22:00,
2013-04-27 15:25:00,70.9,19.8,29.80,WSW,248,19.7,28.4,15,0.00,,,0.00,WUHU216HW,2013-04-27 21:25:00,
2013-04-27 15:26:00,71.1,21.5,29.80,WNW,293,21.0,28.4,16,0.00,,,0.00,WUHU216HW,2013-04-27 21:26:00,
2013-04-27 15:27:00,71.3,21.7,29.80,West,270,14.3,28.4,16,0.00,,,0.00,WUHU216HW,2013-04-27 21:27:00,
2013-04-27 15:28:00,71.3,21.7,29.80,WNW,293,16.1,28.4,16,0.00,,,0.00,WUHU216HW,2013-04-27 21:28:00,
2013-04-27 15:30:00,71.6,20.3,29.79,WNW,293,12.1,28.4,15,0.00,,,0.00,WUHU216HW,2013-04-27 21:30:00,
2013-04-27 15:31:00,71.5,20.2,29.79,WNW,293,21.3,28.4,15,0.00,,,0.00,WUHU216HW,2013-04-27 21:31:00,
2013-04-27 15:32:00,71.5,20.2,29.79,WNW,293,21.3,28.4,15,0.00,,,0.00,WUHU216HW,2013-04-27 21:32:00,
2013-04-27 15:33:00,71.3,20.1,29.79,NW,315,22.1,28.4,15,0.00,,,0.00,WUHU216HW,2013-04-27 21:33:00,
2013-04-27 15:35:00,70.9,19.8,29.79,WNW,293,21.7,26.2,15,0.00,,,0.00,WUHU216HW,2013-04-27 21:35:00,
2013-04-27 15:37:00,70.7,19.6,29.79,WNW,293,19.2,26.2,15,0.00,,,0.00,WUHU216HW,2013-04-27 21:37:00,
2013-04-27 15:38:00,70.7,19.6,29.79,West,270,25.5,26.2,15,0.00,,,0.00,WUHU216HW,2013-04-27 21:38:00,
2013-04-27 15:40:00,70.4,19.4,29.79,WNW,293,17.2,28.2,15,0.00,,,0.00,WUHU216HW,2013-04-27 21:40:00,
2013-04-27 15:42:00,70.2,19.2,29.79,NW,315,19.9,28.2,15,0.00,,,0.00,WUHU216HW,2013-04-27 21:42:00,
2013-04-27 15:43:00,70.2,19.2,29.78,WNW,293,14.5,28.2,15,0.00,,,0.00,WUHU216HW,2013-04-27 21:43:00,
2013-04-27 15:45:00,70.4,21.0,29.78,NW,315,13.4,28.2,16,0.00,,,0.00,WUHU216HW,2013-04-27 21:45:00,
2013-04-27 15:47:00,70.4,21.0,29.79,West,270,13.9,28.2,16,0.00,,,0.00,WUHU216HW,2013-04-27 21:47:00,
2013-04-27 15:48:00,70.6,21.1,29.78,West,270,15.7,28.2,16,0.00,,,0.00,WUHU216HW,2013-04-27 21:48:00,
2013-04-27 15:51:00,71.3,20.1,29.78,NW,315,12.1,27.1,15,0.00,,,0.00,WUHU216HW,2013-04-27 21:51:00,
2013-04-27 15:52:00,71.5,21.8,29.78,WSW,248,11.4,19.0,16,0.00,,,0.00,WUHU216HW,2013-04-27 21:52:00,
2013-04-27 15:53:00,71.6,20.3,29.78,West,270,19.9,19.9,15,0.00,,,0.00,WUHU216HW,2013-04-27 21:53:00,
2013-04-27 15:56:00,71.5,20.2,29.78,WNW,293,21.5,21.5,15,0.00,,,0.00,WUHU216HW,2013-04-27 21:56:00,
2013-04-27 15:57:00,71.1,19.9,29.78,West,270,19.2,21.5,15,0.00,,,0.00,WUHU216HW,2013-04-27 21:57:00,
2013-04-27 15:59:00,71.3,20.1,29.78,WNW,293,11.0,21.5,15,0.00,,,0.00,WUHU216HW,2013-04-27 21:59:00,
2013-04-27 16:01:00,71.5,16.9,29.78,WNW,293,25.9,25.9,13,0.00,,,0.00,WUHU216HW,2013-04-27 22:01:00,
2013-04-27 16:02:00,71.3,16.8,29.78,West,270,23.0,30.2,13,0.00,,,0.00,WUHU216HW,2013-04-27 22:02:00,
2013-04-27 16:04:00,70.9,16.6,29.78,WNW,293,22.6,30.2,13,0.00,,,0.00,WUHU216HW,2013-04-27 22:04:00,
2013-04-27 16:06:00,71.1,19.9,29.77,WNW,293,19.2,30.2,15,0.00,,,0.00,WUHU216HW,2013-04-27 22:06:00,
2013-04-27 16:07:00,71.1,19.9,29.78,WNW,293,16.8,30.2,15,0.00,,,0.00,WUHU216HW,2013-04-27 22:07:00,
2013-04-27 16:09:00,71.3,20.1,29.77,WNW,293,21.9,30.2,15,0.00,,,0.00,WUHU216HW,2013-04-27 22:09:00,
2013-04-27 16:10:00,71.3,20.1,29.77,WNW,293,17.9,30.2,15,0.00,,,0.00,WUHU216HW,2013-04-27 22:10:00,
2013-04-27 16:11:00,71.3,20.1,29.77,West,270,22.8,30.2,15,0.00,,,0.00,WUHU216HW,2013-04-27 22:11:00,
2013-04-27 16:12:00,71.5,16.9,29.77,WNW,293,20.1,28.2,13,0.00,,,0.00,WUHU216HW,2013-04-27 22:12:00,
2013-04-27 16:13:00,71.5,16.9,29.77,WNW,293,20.1,28.2,13,0.00,,,0.00,WUHU216HW,2013-04-27 22:13:00,
2013-04-27 16:15:00,71.3,16.8,29.77,West,270,19.2,24.4,13,0.00,,,0.00,WUHU216HW,2013-04-27 22:15:00,
2013-04-27 16:16:00,71.3,16.8,29.77,West,270,17.9,24.4,13,0.00,,,0.00,WUHU216HW,2013-04-27 22:16:00,
2013-04-27 16:17:00,71.3,16.8,29.77,West,270,26.8,26.8,13,0.00,,,0.00,WUHU216HW,2013-04-27 22:17:00,
2013-04-27 16:18:00,71.3,16.8,29.77,West,270,26.8,26.8,13,0.00,,,0.00,WUHU216HW,2013-04-27 22:18:00,
2013-04-27 16:20:00,71.3,16.8,29.77,WNW,293,13.0,28.0,13,0.00,,,0.00,WUHU216HW,2013-04-27 22:20:00,
2013-04-27 16:21:00,71.1,16.7,29.77,NW,315,20.6,28.0,13,0.00,,,0.00,WUHU216HW,2013-04-27 22:21:00,
2013-04-27 16:22:00,71.3,20.1,29.77,WNW,293,17.9,28.0,15,0.00,,,0.00,WUHU216HW,2013-04-27 22:22:00,
2013-04-27 16:23:00,71.1,16.7,29.77,NW,315,25.7,28.0,13,0.00,,,0.00,WUHU216HW,2013-04-27 22:23:00,
2013-04-27 16:25:00,70.7,16.4,29.77,WNW,293,23.0,28.0,13,0.00,,,0.00,WUHU216HW,2013-04-27 22:25:00,
2013-04-27 16:26:00,70.6,19.4,29.76,NW,315,23.7,28.0,15,0.00,,,0.00,WUHU216HW,2013-04-27 22:26:00,
2013-04-27 16:27:00,70.4,17.7,29.77,West,270,26.2,28.0,14,0.00,,,0.00,WUHU216HW,2013-04-27 22:27:00,
2013-04-27 16:28:00,70.2,19.2,29.77,NW,315,23.7,28.0,15,0.00,,,0.00,WUHU216HW,2013-04-27 22:28:00,
2013-04-27 16:29:00,70.2,19.2,29.76,WNW,293,24.4,27.7,15,0.00,,,0.00,WUHU216HW,2013-04-27 22:29:00,
2013-04-27 16:30:00,70.2,19.2,29.77,West,270,28.0,28.0,15,0.00,,,0.00,WUHU216HW,2013-04-27 22:30:00,
2013-04-27 16:31:00,70.4,19.4,29.76,WNW,293,18.1,28.0,15,0.00,,,0.00,WUHU216HW,2013-04-27 22:31:00,
2013-04-27 16:32:00,70.4,19.4,29.76,NW,315,23.3,28.0,15,0.00,,,0.00,WUHU216HW,2013-04-27 22:32:00,
2013-04-27 16:33:00,70.4,19.4,29.76,WNW,293,26.4,28.0,15,0.00,,,0.00,WUHU216HW,2013-04-27 22:33:00,
2013-04-27 16:34:00,70.4,19.4,29.76,West,270,20.1,28.0,15,0.00,,,0.00,WUHU216HW,2013-04-27 22:34:00,
2013-04-27 16:35:00,70.2,19.2,29.76,NW,315,14.5,28.0,15,0.00,,,0.00,WUHU216HW,2013-04-27 22:35:00,
2013-04-27 16:36:00,70.4,19.4,29.76,WNW,293,21.5,28.0,15,0.00,,,0.00,WUHU216HW,2013-04-27 22:36:00,
2013-04-27 16:37:00,70.6,19.4,29.76,West,270,21.3,28.0,15,0.00,,,0.00,WUHU216HW,2013-04-27 22:37:00,
2013-04-27 16:38:00,70.6,19.4,29.76,West,270,21.3,28.0,15,0.00,,,0.00,WUHU216HW,2013-04-27 22:38:00,
2013-04-27 16:39:00,70.6,19.4,29.76,WNW,293,15.2,28.0,15,0.00,,,0.00,WUHU216HW,2013-04-27 22:39:00,
2013-04-27 16:40:00,70.6,21.1,29.76,NW,315,14.3,28.0,16,0.00,,,0.00,WUHU216HW,2013-04-27 22:40:00,
2013-04-27 16:41:00,70.7,21.2,29.75,NW,315,11.4,28.0,16,0.00,,,0.00,WUHU216HW,2013-04-27 22:41:00,
2013-04-27 16:43:00,71.3,20.1,29.75,NW,315,17.9,28.0,15,0.00,,,0.00,WUHU216HW,2013-04-27 22:43:00,
2013-04-27 16:44:00,71.1,21.5,29.75,WNW,293,18.6,22.4,16,0.00,,,0.00,WUHU216HW,2013-04-27 22:44:00,
2013-04-27 16:45:00,70.9,19.8,29.75,WNW,293,17.2,23.7,15,0.00,,,0.00,WUHU216HW,2013-04-27 22:45:00,
2013-04-27 16:46:00,70.6,19.4,29.75,NW,315,21.5,23.7,15,0.00,,,0.00,WUHU216HW,2013-04-27 22:46:00,
2013-04-27 16:48:00,69.8,18.9,29.76,NW,315,13.0,23.7,15,0.00,,,0.00,WUHU216HW,2013-04-27 22:48:00,
2013-04-27 16:50:00,69.3,20.1,29.75,NW,315,18.8,23.7,16,0.00,,,0.00,WUHU216HW,2013-04-27 22:50:00,
2013-04-27 16:51:00,69.1,20.0,29.75,NW,315,14.1,23.7,16,0.00,,,0.00,WUHU216HW,2013-04-27 22:51:00,
2013-04-27 16:53:00,69.1,21.6,29.75,WSW,248,18.1,23.7,17,0.00,,,0.00,WUHU216HW,2013-04-27 22:53:00,
2013-04-27 16:54:00,69.1,21.6,29.75,WSW,248,18.1,23.7,17,0.00,,,0.00,WUHU216HW,2013-04-27 22:54:00,
2013-04-27 16:55:00,69.1,20.0,29.75,NW,315,18.6,22.1,16,0.00,,,0.00,WUHU216HW,2013-04-27 22:55:00,
2013-04-27 16:56:00,69.1,21.6,29.75,NW,315,15.4,22.1,17,0.00,,,0.00,WUHU216HW,2013-04-27 22:56:00,
2013-04-27 16:58:00,68.9,19.8,29.75,WNW,293,17.9,22.1,16,0.00,,,0.00,WUHU216HW,2013-04-27 22:58:00,
2013-04-27 16:59:00,68.8,19.7,29.75,WNW,293,14.5,22.1,16,0.00,,,0.00,WUHU216HW,2013-04-27 22:59:00,
2013-04-27 17:00:00,68.6,21.2,29.75,NW,315,13.6,21.0,17,0.00,,,0.00,WUHU216HW,2013-04-27 23:00:00,
2013-04-27 17:01:00,68.6,21.2,29.75,WNW,293,13.6,21.0,17,0.00,,,0.00,WUHU216HW,2013-04-27 23:01:00,
2013-04-27 17:02:00,68.6,21.2,29.75,WNW,293,14.3,21.0,17,0.00,,,0.00,WUHU216HW,2013-04-27 23:02:00,
2013-04-27 17:03:00,68.8,21.3,29.75,WNW,293,14.5,21.0,17,0.00,,,0.00,WUHU216HW,2013-04-27 23:03:00,
2013-04-27 17:04:00,68.8,21.3,29.75,NW,315,14.1,21.0,17,0.00,,,0.00,WUHU216HW,2013-04-27 23:04:00,
2013-04-27 17:06:00,69.1,21.6,29.75,WNW,293,19.0,20.8,17,0.00,,,0.00,WUHU216HW,2013-04-27 23:06:00,
2013-04-27 17:07:00,69.5,21.9,29.75,WNW,293,17.2,19.0,17,0.00,,,0.00,WUHU216HW,2013-04-27 23:07:00,
2013-04-27 17:09:00,69.5,20.3,29.75,West,270,19.9,24.2,16,0.00,,,0.00,WUHU216HW,2013-04-27 23:09:00,
2013-04-27 17:11:00,69.1,20.0,29.75,West,270,23.0,24.2,16,0.00,,,0.00,WUHU216HW,2013-04-27 23:11:00,
2013-04-27 17:13:00,68.9,19.8,29.75,WNW,293,17.9,24.2,16,0.00,,,0.00,WUHU216HW,2013-04-27 23:13:00,
2013-04-27 17:14:00,68.6,21.2,29.75,WNW,293,22.1,24.2,17,0.00,,,0.00,WUHU216HW,2013-04-27 23:14:00,
2013-04-27 17:15:00,68.6,19.5,29.75,WNW,293,21.7,24.2,16,0.00,,,0.00,WUHU216HW,2013-04-27 23:15:00,
2013-04-27 17:16:00,68.2,19.3,29.75,West,270,21.9,24.8,16,0.00,,,0.00,WUHU216HW,2013-04-27 23:16:00,
2013-04-27 17:18:00,68.0,20.8,29.75,WSW,248,17.2,24.8,17,0.00,,,0.00,WUHU216HW,2013-04-27 23:18:00,
2013-04-27 17:19:00,67.9,20.6,29.75,West,270,23.5,27.1,17,0.00,,,0.00,WUHU216HW,2013-04-27 23:19:00,
2013-04-27 17:20:00,67.7,20.4,29.75,West,270,23.5,27.1,17,0.00,,,0.00,WUHU216HW,2013-04-27 23:20:00,
2013-04-27 17:21:00,67.7,20.4,29.76,WNW,293,13.0,27.1,17,0.00,,,0.00,WUHU216HW,2013-04-27 23:21:00,
2013-04-27 17:23:00,67.5,21.9,29.76,West,270,20.1,27.1,18,0.00,,,0.00,WUHU216HW,2013-04-27 23:23:00,
2013-04-27 17:25:00,67.3,20.2,29.75,West,270,23.9,27.1,17,0.00,,,0.00,WUHU216HW,2013-04-27 23:25:00,
2013-04-27 17:26:00,67.3,20.2,29.75,West,270,17.2,27.1,17,0.00,,,0.00,WUHU216HW,2013-04-27 23:26:00,
2013-04-27 17:29:00,67.3,21.7,29.75,NW,315,14.8,25.9,18,0.00,,,0.00,WUHU216HW,2013-04-27 23:29:00,
2013-04-27 17:30:00,67.3,21.7,29.75,NW,315,16.3,25.9,18,0.00,,,0.00,WUHU216HW,2013-04-27 23:30:00,
2013-04-27 17:31:00,67.3,21.7,29.75,WNW,293,28.9,28.9,18,0.00,,,0.00,WUHU216HW,2013-04-27 23:31:00,
2013-04-27 17:34:00,67.0,19.8,29.75,NW,315,21.5,28.9,17,0.00,,,0.00,WUHU216HW,2013-04-27 23:34:00,
2013-04-27 17:35:00,67.0,21.4,29.75,West,270,20.1,28.9,18,0.00,,,0.00,WUHU216HW,2013-04-27 23:35:00,
2013-04-27 17:36:00,67.0,21.4,29.75,WNW,293,21.5,28.9,18,0.00,,,0.00,WUHU216HW,2013-04-27 23:36:00,
2013-04-27 17:37:00,67.0,19.8,29.75,WNW,293,20.1,28.9,17,0.00,,,0.00,WUHU216HW,2013-04-27 23:37:00,
2013-04-27 17:40:00,66.8,21.2,29.75,WNW,293,13.4,28.9,18,0.00,,,0.00,WUHU216HW,2013-04-27 23:40:00,
2013-04-27 17:41:00,66.8,21.2,29.75,WNW,293,16.8,28.9,18,0.00,,,0.00,WUHU216HW,2013-04-27 23:41:00,
2013-04-27 17:42:00,66.8,21.2,29.75,NW,315,14.8,25.9,18,0.00,,,0.00,WUHU216HW,2013-04-27 23:42:00,
2013-04-27 17:45:00,66.6,21.1,29.75,NW,315,21.3,24.6,18,0.00,,,0.00,WUHU216HW,2013-04-27 23:45:00,
2013-04-27 17:46:00,66.6,21.1,29.75,NW,315,20.4,24.6,18,0.00,,,0.00,WUHU216HW,2013-04-27 23:46:00,
2013-04-27 17:47:00,66.6,21.1,29.75,WNW,293,21.7,24.6,18,0.00,,,0.00,WUHU216HW,2013-04-27 23:47:00,
2013-04-27 17:50:00,66.4,21.0,29.76,WNW,293,17.0,24.6,18,0.00,,,0.00,WUHU216HW,2013-04-27 23:50:00,
2013-04-27 17:51:00,66.4,21.0,29.76,WNW,293,15.7,24.6,18,0.00,,,0.00,WUHU216HW,2013-04-27 23:51:00,
2013-04-27 17:52:00,66.4,21.0,29.76,WNW,293,19.2,24.6,18,0.00,,,0.00,WUHU216HW,2013-04-27 23:52:00,
2013-04-27 17:55:00,66.4,21.0,29.76,NW,315,10.1,21.7,18,0.00,,,0.00,WUHU216HW,2013-04-27 23:55:00,
2013-04-27 17:56:00,66.4,21.0,29.76,WNW,293,12.5,21.7,18,0.00,,,0.00,WUHU216HW,2013-04-27 23:56:00,
2013-04-27 17:57:00,66.4,21.0,29.76,WNW,293,12.5,21.7,18,0.00,,,0.00,WUHU216HW,2013-04-27 23:57:00,
2013-04-27 18:00:00,66.2,20.8,29.76,NW,315,18.3,22.1,18,0.00,,,0.00,WUHU216HW,2013-04-28 00:00:00,
2013-04-27 18:01:00,66.2,20.8,29.76,WNW,293,14.5,22.1,18,0.00,,,0.00,WUHU216HW,2013-04-28 00:01:00,
2013-04-27 18:02:00,66.2,20.8,29.76,WNW,293,14.5,22.1,18,0.00,,,0.00,WUHU216HW,2013-04-28 00:02:00,
2013-04-27 18:05:00,66.1,20.6,29.76,NW,315,14.8,22.4,18,0.00,,,0.00,WUHU216HW,2013-04-28 00:05:00,
2013-04-27 18:06:00,65.9,20.5,29.76,WNW,293,19.0,22.4,18,0.00,,,0.00,WUHU216HW,2013-04-28 00:06:00,
2013-04-27 18:07:00,65.9,20.5,29.76,WNW,293,18.6,22.4,18,0.00,,,0.00,WUHU216HW,2013-04-28 00:07:00,
2013-04-27 18:10:00,65.9,20.5,29.76,WNW,293,23.0,23.0,18,0.00,,,0.00,WUHU216HW,2013-04-28 00:10:00,
2013-04-27 18:12:00,65.9,22.1,29.76,NW,315,15.7,23.0,19,0.00,,,0.00,WUHU216HW,2013-04-28 00:12:00,
2013-04-27 18:13:00,65.9,22.1,29.76,NW,315,13.9,23.0,19,0.00,,,0.00,WUHU216HW,2013-04-28 00:13:00,
2013-04-27 18:15:00,65.9,22.1,29.76,WNW,293,12.1,23.0,19,0.00,,,0.00,WUHU216HW,2013-04-28 00:15:00,
2013-04-27 18:17:00,65.9,22.1,29.76,NW,315,12.8,23.0,19,0.00,,,0.00,WUHU216HW,2013-04-28 00:17:00,
2013-04-27 18:18:00,65.9,22.1,29.76,WNW,293,11.4,23.0,19,0.00,,,0.00,WUHU216HW,2013-04-28 00:18:00,
2013-04-27 18:20:00,65.7,22.0,29.76,NW,315,10.5,23.0,19,0.00,,,0.00,WUHU216HW,2013-04-28 00:20:00,
2013-04-27 18:22:00,65.7,22.0,29.76,NNW,338,10.7,15.9,19,0.00,,,0.00,WUHU216HW,2013-04-28 00:22:00,
2013-04-27 18:23:00,65.5,21.8,29.76,WNW,293,13.0,15.9,19,0.00,,,0.00,WUHU216HW,2013-04-28 00:23:00,
2013-04-27 18:25:00,65.5,21.8,29.76,NW,315,11.6,13.2,19,0.00,,,0.00,WUHU216HW,2013-04-28 00:25:00,
2013-04-27 18:27:00,65.3,23.2,29.76,NW,315,10.5,13.2,20,0.00,,,0.00,WUHU216HW,2013-04-28 00:27:00,
2013-04-27 18:28:00,65.3,24.2,29.76,NW,315,9.2,13.0,21,0.00,,,0.00,WUHU216HW,2013-04-28 00:28:00,
2013-04-27 18:31:00,65.5,23.4,29.76,WNW,293,9.6,13.0,20,0.00,,,0.00,WUHU216HW,2013-04-28 00:31:00,
2013-04-27 18:33:00,65.5,21.8,29.76,NW,315,10.5,13.4,19,0.00,,,0.00,WUHU216HW,2013-04-28 00:33:00,
2013-04-27 18:36:00,65.5,21.8,29.76,NNW,338,10.5,15.0,19,0.00,,,0.00,WUHU216HW,2013-04-28 00:36:00,
2013-04-27 18:38:00,65.5,21.8,29.76,NW,315,10.5,15.0,19,0.00,,,0.00,WUHU216HW,2013-04-28 00:38:00,
2013-04-27 18:39:00,65.7,22.0,29.76,NW,315,10.7,15.0,19,0.00,,,0.00,WUHU216HW,2013-04-28 00:39:00,
2013-04-27 18:41:00,65.7,24.5,29.76,NW,315,7.6,15.0,21,0.00,,,0.00,WUHU216HW,2013-04-28 00:41:00,
2013-04-27 18:43:00,65.9,22.1,29.76,NW,315,10.5,15.0,19,0.00,,,0.00,WUHU216HW,2013-04-28 00:43:00,
2013-04-27 18:44:00,65.9,22.1,29.76,WNW,293,15.4,15.4,19,0.00,,,0.00,WUHU216HW,2013-04-28 00:44:00,
2013-04-27 18:47:00,65.7,22.0,29.76,NW,315,15.7,16.3,19,0.00,,,0.00,WUHU216HW,2013-04-28 00:47:00,
2013-04-27 18:48:00,65.7,20.3,29.76,NW,315,17.2,17.2,18,0.00,,,0.00,WUHU216HW,2013-04-28 00:48:00,
2013-04-27 18:49:00,65.7,22.0,29.76,WNW,293,14.3,17.2,19,0.00,,,0.00,WUHU216HW,2013-04-28 00:49:00,
2013-04-27 18:52:00,65.9,22.1,29.76,WNW,293,14.3,17.2,19,0.00,,,0.00,WUHU216HW,2013-04-28 00:52:00,
2013-04-27 18:53:00,65.9,22.1,29.75,NW,315,18.1,18.1,19,0.00,,,0.00,WUHU216HW,2013-04-28 00:53:00,
2013-04-27 18:54:00,65.9,22.1,29.75,WNW,293,12.8,18.1,19,0.00,,,0.00,WUHU216HW,2013-04-28 00:54:00,
2013-04-27 18:57:00,66.2,22.3,29.75,WNW,293,13.0,18.1,19,0.00,,,0.00,WUHU216HW,2013-04-28 00:57:00,
2013-04-27 18:58:00,66.6,22.7,29.75,NW,315,19.2,19.2,19,0.00,,,0.00,WUHU216HW,2013-04-28 00:58:00,
2013-04-27 18:59:00,66.6,21.1,29.75,NW,315,17.9,19.2,18,0.00,,,0.00,WUHU216HW,2013-04-28 00:59:00,
2013-04-27 19:02:00,66.2,20.8,29.75,NW,315,22.4,26.6,18,0.00,,,0.00,WUHU216HW,2013-04-28 01:02:00,
2013-04-27 19:04:00,66.2,20.8,29.75,NW,315,23.7,26.6,18,0.00,,,0.00,WUHU216HW,2013-04-28 01:04:00,
2013-04-27 19:06:00,66.2,20.8,29.75,NNW,338,13.9,26.6,18,0.00,,,0.00,WUHU216HW,2013-04-28 01:06:00,
2013-04-27 19:07:00,66.4,21.0,29.75,NW,315,21.5,26.6,18,0.00,,,0.00,WUHU216HW,2013-04-28 01:07:00,
2013-04-27 19:09:00,66.6,21.1,29.75,NW,315,18.8,26.6,18,0.00,,,0.00,WUHU216HW,2013-04-28 01:09:00,
2013-04-27 19:11:00,66.6,21.1,29.75,WNW,293,17.4,26.6,18,0.00,,,0.00,WUHU216HW,2013-04-28 01:11:00,
2013-04-27 19:13:00,66.6,21.1,29.75,WNW,293,17.0,24.4,18,0.00,,,0.00,WUHU216HW,2013-04-28 01:13:00,
2013-04-27 19:14:00,66.6,21.1,29.75,NW,315,19.2,24.4,18,0.00,,,0.00,WUHU216HW,2013-04-28 01:14:00,
2013-04-27 19:15:00,66.6,19.5,29.75,NW,315,18.6,22.6,17,0.00,,,0.00,WUHU216HW,2013-04-28 01:15:00,
2013-04-27 19:17:00,66.6,19.5,29.75,NNW,338,21.7,22.6,17,0.00,,,0.00,WUHU216HW,2013-04-28 01:17:00,
2013-04-27 19:19:00,66.6,19.5,29.75,NW,315,17.2,22.6,17,0.00,,,0.00,WUHU216HW,2013-04-28 01:19:00,
2013-04-27 19:21:00,66.6,21.1,29.75,NW,315,13.4,22.6,18,0.00,,,0.00,WUHU216HW,2013-04-28 01:21:00,
2013-04-27 19:22:00,66.6,19.5,29.75,NW,315,20.8,22.4,17,0.00,,,0.00,WUHU216HW,2013-04-28 01:22:00,
2013-04-27 19:24:00,66.6,19.5,29.74,NW,315,20.8,22.4,17,0.00,,,0.00,WUHU216HW,2013-04-28 01:24:00,
2013-04-27 19:25:00,66.6,19.5,29.74,WNW,293,20.8,22.4,17,0.00,,,0.00,WUHU216HW,2013-04-28 01:25:00,
2013-04-27 19:27:00,66.4,19.4,29.74,NNW,338,19.2,22.4,17,0.00,,,0.00,WUHU216HW,2013-04-28 01:27:00,
2013-04-27 19:28:00,66.6,21.1,29.75,WNW,293,14.1,22.1,18,0.00,,,0.00,WUHU216HW,2013-04-28 01:28:00,
2013-04-27 19:29:00,66.6,21.1,29.75,WNW,293,9.4,22.1,18,0.00,,,0.00,WUHU216HW,2013-04-28 01:29:00,
2013-04-27 19:30:00,66.6,21.1,29.75,NW,315,17.0,22.1,18,0.00,,,0.00,WUHU216HW,2013-04-28 01:30:00,
2013-04-27 19:32:00,66.6,21.1,29.75,WNW,293,16.3,22.1,18,0.00,,,0.00,WUHU216HW,2013-04-28 01:32:00,
2013-04-27 19:33:00,66.6,21.1,29.75,WNW,293,13.4,22.1,18,0.00,,,0.00,WUHU216HW,2013-04-28 01:33:00,
2013-04-27 19:34:00,66.6,21.1,29.75,NNW,338,15.2,22.1,18,0.00,,,0.00,WUHU216HW,2013-04-28 01:34:00,
2013-04-27 19:35:00,66.6,21.1,29.75,NNW,338,21.0,21.0,18,0.00,,,0.00,WUHU216HW,2013-04-28 01:35:00,
2013-04-27 19:37:00,66.6,21.1,29.75,NW,315,15.0,21.0,18,0.00,,,0.00,WUHU216HW,2013-04-28 01:37:00,
2013-04-27 19:39:00,66.6,21.1,29.74,NW,315,17.0,21.0,18,0.00,,,0.00,WUHU216HW,2013-04-28 01:39:00,
2013-04-27 19:41:00,66.6,19.5,29.74,NW,315,17.9,22.1,17,0.00,,,0.00,WUHU216HW,2013-04-28 01:41:00,
2013-04-27 19:43:00,66.4,21.0,29.74,NW,315,14.3,22.1,18,0.00,,,0.00,WUHU216HW,2013-04-28 01:43:00,
2013-04-27 19:44:00,66.2,20.8,29.74,NNW,338,15.0,22.1,18,0.00,,,0.00,WUHU216HW,2013-04-28 01:44:00,
2013-04-27 19:46:00,66.1,20.6,29.74,NW,315,24.2,24.2,18,0.00,,,0.00,WUHU216HW,2013-04-28 01:46:00,
2013-04-27 19:48:00,66.2,20.8,29.74,NW,315,18.8,24.2,18,0.00,,,0.00,WUHU216HW,2013-04-28 01:48:00,
2013-04-27 19:51:00,66.1,20.6,29.74,NW,315,15.4,24.2,18,0.00,,,0.00,WUHU216HW,2013-04-28 01:51:00,
2013-04-27 19:54:00,65.9,20.5,29.74,NNW,338,12.8,24.2,18,0.00,,,0.00,WUHU216HW,2013-04-28 01:54:00,
2013-04-27 19:56:00,65.9,20.5,29.74,North,0,18.6,24.2,18,0.00,,,0.00,WUHU216HW,2013-04-28 01:56:00,
2013-04-27 19:59:00,65.2,19.9,29.74,NNW,338,16.6,20.6,18,0.00,,,0.00,WUHU216HW,2013-04-28 01:59:00,
2013-04-27 20:01:00,65.2,19.9,29.74,NNW,338,17.9,20.6,18,0.00,,,0.00,WUHU216HW,2013-04-28 02:01:00,
2013-04-27 20:03:00,65.0,19.8,29.74,WNW,293,19.2,24.6,18,0.00,,,0.00,WUHU216HW,2013-04-28 02:03:00,
2013-04-27 20:06:00,64.4,20.9,29.74,NW,315,17.9,24.6,19,0.00,,,0.00,WUHU216HW,2013-04-28 02:06:00,
2013-04-27 20:08:00,64.3,22.3,29.74,NW,315,11.4,24.6,20,0.00,,,0.00,WUHU216HW,2013-04-28 02:08:00,
2013-04-27 20:11:00,63.5,22.8,29.74,NNW,338,11.0,24.6,21,0.00,,,0.00,WUHU216HW,2013-04-28 02:11:00,
2013-04-27 20:12:00,63.4,23.6,29.74,NNW,338,10.3,24.6,22,0.00,,,0.00,WUHU216HW,2013-04-28 02:12:00,
2013-04-27 20:13:00,62.3,22.7,29.74,NNW,338,11.9,20.8,22,0.00,,,0.00,WUHU216HW,2013-04-28 02:13:00,
2013-04-27 20:17:00,61.7,22.2,29.74,NNW,338,10.7,14.3,22,0.00,,,0.00,WUHU216HW,2013-04-28 02:17:00,
2013-04-27 20:22:00,61.4,22.0,29.74,NNW,338,8.9,13.0,22,0.00,,,0.00,WUHU216HW,2013-04-28 02:22:00,
2013-04-27 20:25:00,61.4,21.0,29.74,NNW,338,6.9,12.5,21,0.00,,,0.00,WUHU216HW,2013-04-28 02:25:00,
2013-04-27 20:28:00,60.8,21.5,29.75,NW,315,5.6,11.0,22,0.00,,,0.00,WUHU216HW,2013-04-28 02:28:00,
2013-04-27 20:29:00,60.7,21.3,29.75,NW,315,6.5,11.0,22,0.00,,,0.00,WUHU216HW,2013-04-28 02:29:00,
2013-04-27 20:32:00,60.7,21.3,29.75,NW,315,6.0,11.0,22,0.00,,,0.00,WUHU216HW,2013-04-28 02:32:00,
2013-04-27 20:34:00,60.5,21.3,29.75,NW,315,4.7,9.2,22,0.00,,,0.00,WUHU216HW,2013-04-28 02:34:00,
2013-04-27 20:40:00,60.3,21.1,29.76,NNW,338,4.3,12.3,22,0.00,,,0.00,WUHU216HW,2013-04-28 02:40:00,
2013-04-27 20:41:00,60.3,21.1,29.76,NNW,338,6.3,12.3,22,0.00,,,0.00,WUHU216HW,2013-04-28 02:41:00,
2013-04-27 20:42:00,60.1,20.9,29.76,NW,315,4.7,12.3,22,0.00,,,0.00,WUHU216HW,2013-04-28 02:42:00,
2013-04-27 20:43:00,60.3,21.1,29.76,NW,315,5.4,12.3,22,0.00,,,0.00,WUHU216HW,2013-04-28 02:43:00,
2013-04-27 20:44:00,59.9,21.7,29.76,NNW,338,7.2,11.2,23,0.00,,,0.00,WUHU216HW,2013-04-28 02:44:00,
2013-04-27 20:46:00,59.8,21.5,29.76,NNW,338,6.5,8.7,23,0.00,,,0.00,WUHU216HW,2013-04-28 02:46:00,
2013-04-27 20:54:00,59.6,22.3,29.76,WNW,293,6.0,9.6,24,0.00,,,0.00,WUHU216HW,2013-04-28 02:54:00,
2013-04-27 20:55:00,59.4,22.2,29.76,NW,315,8.1,9.6,24,0.00,,,0.00,WUHU216HW,2013-04-28 02:55:00,
2013-04-27 20:56:00,59.4,22.2,29.76,WSW,248,6.9,9.6,24,0.00,,,0.00,WUHU216HW,2013-04-28 02:56:00,
2013-04-27 20:58:00,59.8,21.5,29.76,NW,315,5.1,9.6,23,0.00,,,0.00,WUHU216HW,2013-04-28 02:58:00,
2013-04-27 20:59:00,59.2,22.1,29.76,West,270,4.7,11.2,24,0.00,,,0.00,WUHU216HW,2013-04-28 02:59:00,
2013-04-27 21:00:00,59.2,22.1,29.76,WNW,293,5.4,11.2,24,0.00,,,0.00,WUHU216HW,2013-04-28 03:00:00,
2013-04-27 21:02:00,59.2,22.1,29.76,WNW,293,5.4,11.2,24,0.00,,,0.00,WUHU216HW,2013-04-28 03:02:00,
2013-04-27 21:03:00,59.2,22.1,29.76,WNW,293,5.4,11.2,24,0.00,,,0.00,WUHU216HW,2013-04-28 03:03:00,
2013-04-27 21:04:00,59.0,21.9,29.76,WNW,293,7.4,11.2,24,0.00,,,0.00,WUHU216HW,2013-04-28 03:04:00,
2013-04-27 21:05:00,59.0,21.9,29.76,WNW,293,5.6,11.2,24,0.00,,,0.00,WUHU216HW,2013-04-28 03:05:00,
2013-04-27 21:07:00,58.9,21.8,29.76,NW,315,4.7,11.2,24,0.00,,,0.00,WUHU216HW,2013-04-28 03:07:00,
2013-04-27 21:08:00,58.9,21.8,29.76,NW,315,3.8,8.5,24,0.00,,,0.00,WUHU216HW,2013-04-28 03:08:00,
2013-04-27 21:09:00,58.7,22.6,29.76,NW,315,4.7,8.5,25,0.00,,,0.00,WUHU216HW,2013-04-28 03:09:00,
2013-04-27 21:10:00,58.7,22.6,29.76,NW,315,4.7,8.5,25,0.00,,,0.00,WUHU216HW,2013-04-28 03:10:00,
2013-04-27 21:13:00,58.7,22.6,29.76,NW,315,9.2,11.9,25,0.00,,,0.00,WUHU216HW,2013-04-28 03:13:00,
2013-04-27 21:14:00,58.7,22.6,29.76,WNW,293,7.2,11.9,25,0.00,,,0.00,WUHU216HW,2013-04-28 03:14:00,
2013-04-27 21:16:00,58.7,22.6,29.76,WNW,293,8.3,11.9,25,0.00,,,0.00,WUHU216HW,2013-04-28 03:16:00,
2013-04-27 21:19:00,58.5,22.4,29.76,WNW,293,6.9,11.9,25,0.00,,,0.00,WUHU216HW,2013-04-28 03:19:00,
2013-04-27 21:21:00,58.5,22.4,29.76,WNW,293,5.6,11.9,25,0.00,,,0.00,WUHU216HW,2013-04-28 03:21:00,
2013-04-27 21:22:00,58.5,22.4,29.76,NW,315,4.0,11.4,25,0.00,,,0.00,WUHU216HW,2013-04-28 03:22:00,
2013-04-27 21:23:00,58.5,22.4,29.76,NW,315,4.0,11.4,25,0.00,,,0.00,WUHU216HW,2013-04-28 03:23:00,
2013-04-27 21:24:00,58.3,22.2,29.76,WNW,293,3.4,11.4,25,0.00,,,0.00,WUHU216HW,2013-04-28 03:24:00,
2013-04-27 21:26:00,58.1,22.1,29.76,NW,315,2.5,11.4,25,0.00,,,0.00,WUHU216HW,2013-04-28 03:26:00,
2013-04-27 21:28:00,58.1,22.1,29.76,NW,315,6.0,11.4,25,0.00,,,0.00,WUHU216HW,2013-04-28 03:28:00,
2013-04-27 21:30:00,58.0,22.0,29.76,WNW,293,4.3,8.3,25,0.00,,,0.00,WUHU216HW,2013-04-28 03:30:00,
2013-04-27 21:31:00,58.0,22.9,29.76,NW,315,6.3,8.1,26,0.00,,,0.00,WUHU216HW,2013-04-28 03:31:00,
2013-04-27 21:34:00,57.8,23.7,29.76,West,270,4.9,8.7,27,0.00,,,0.00,WUHU216HW,2013-04-28 03:34:00,
2013-04-27 21:36:00,57.8,23.7,29.76,WNW,293,6.7,8.7,27,0.00,,,0.00,WUHU216HW,2013-04-28 03:36:00,
2013-04-27 21:39:00,57.8,23.7,29.76,WNW,293,6.3,8.7,27,0.00,,,0.00,WUHU216HW,2013-04-28 03:39:00,
2013-04-27 21:41:00,57.6,23.6,29.77,NNW,338,4.3,8.7,27,0.00,,,0.00,WUHU216HW,2013-04-28 03:41:00,
2013-04-27 21:45:00,57.4,23.4,29.77,NNW,338,3.4,8.7,27,0.00,,,0.00,WUHU216HW,2013-04-28 03:45:00,
2013-04-27 21:46:00,57.2,23.2,29.77,NW,315,6.9,10.3,27,0.00,,,0.00,WUHU216HW,2013-04-28 03:46:00,
2013-04-27 21:47:00,57.2,24.2,29.77,NNW,338,4.7,10.3,28,0.00,,,0.00,WUHU216HW,2013-04-28 03:47:00,
2013-04-27 21:50:00,57.2,24.2,29.77,NNW,338,5.4,10.3,28,0.00,,,0.00,WUHU216HW,2013-04-28 03:50:00,
2013-04-27 21:52:00,57.1,23.0,29.77,NW,315,4.0,10.3,27,0.00,,,0.00,WUHU216HW,2013-04-28 03:52:00,
2013-04-27 21:55:00,56.9,23.9,29.77,NE,45,6.0,6.9,28,0.00,,,0.00,WUHU216HW,2013-04-28 03:55:00,
2013-04-27 21:58:00,56.5,23.6,29.77,WSW,248,1.1,6.9,28,0.00,,,0.00,WUHU216HW,2013-04-28 03:58:00,
2013-04-27 21:59:00,56.5,23.6,29.77,SSE,158,3.4,6.9,28,0.00,,,0.00,WUHU216HW,2013-04-28 03:59:00,
2013-04-27 22:00:00,56.5,23.6,29.77,North,0,1.3,6.0,28,0.00,,,0.00,WUHU216HW,2013-04-28 04:00:00,
2013-04-27 22:01:00,56.5,23.6,29.77,SSW,203,1.1,6.0,28,0.00,,,0.00,WUHU216HW,2013-04-28 04:01:00,
2013-04-27 22:02:00,56.3,23.4,29.77,North,0,2.2,6.0,28,0.00,,,0.00,WUHU216HW,2013-04-28 04:02:00,
2013-04-27 22:06:00,56.3,23.4,29.77,WNW,293,1.8,5.4,28,0.00,,,0.00,WUHU216HW,2013-04-28 04:06:00,
2013-04-27 22:07:00,56.5,23.6,29.77,WNW,293,4.3,5.4,28,0.00,,,0.00,WUHU216HW,2013-04-28 04:07:00,
2013-04-27 22:11:00,56.5,24.5,29.77,West,270,1.6,5.4,29,0.00,,,0.00,WUHU216HW,2013-04-28 04:11:00,
2013-04-27 22:12:00,56.5,24.5,29.77,NW,315,2.5,5.4,29,0.00,,,0.00,WUHU216HW,2013-04-28 04:12:00,
2013-04-27 22:16:00,56.0,24.0,29.77,North,0,3.8,5.1,29,0.00,,,0.00,WUHU216HW,2013-04-28 04:16:00,
2013-04-27 22:17:00,55.8,24.9,29.77,NNW,338,2.2,5.1,30,0.00,,,0.00,WUHU216HW,2013-04-28 04:17:00,
2013-04-27 22:18:00,55.8,24.9,29.77,NE,45,2.5,5.1,30,0.00,,,0.00,WUHU216HW,2013-04-28 04:18:00,
2013-04-27 22:21:00,55.4,24.5,29.77,North,0,2.5,5.4,30,0.00,,,0.00,WUHU216HW,2013-04-28 04:21:00,
2013-04-27 22:22:00,55.3,25.0,29.77,North,0,2.0,5.4,31,0.00,,,0.00,WUHU216HW,2013-04-28 04:22:00,
2013-04-27 22:23:00,55.1,24.9,29.77,ENE,68,1.8,5.4,31,0.00,,,0.00,WUHU216HW,2013-04-28 04:23:00,
2013-04-27 22:26:00,54.4,23.6,29.77,ESE,113,2.5,5.4,30,0.00,,,0.00,WUHU216HW,2013-04-28 04:26:00,
2013-04-27 22:27:00,54.2,24.1,29.77,ESE,113,1.1,5.4,31,0.00,,,0.00,WUHU216HW,2013-04-28 04:27:00,
2013-04-27 22:28:00,54.2,24.1,29.77,ESE,113,1.1,5.4,31,0.00,,,0.00,WUHU216HW,2013-04-28 04:28:00,
2013-04-27 22:31:00,53.6,25.1,29.77,ENE,68,6.0,6.5,33,0.00,,,0.00,WUHU216HW,2013-04-28 04:31:00,
2013-04-27 22:32:00,53.6,25.1,29.77,ENE,68,7.8,8.5,33,0.00,,,0.00,WUHU216HW,2013-04-28 04:32:00,
2013-04-27 22:33:00,53.6,25.1,29.77,ENE,68,7.8,8.5,33,0.00,,,0.00,WUHU216HW,2013-04-28 04:33:00,
2013-04-27 22:36:00,53.6,25.7,29.77,NE,45,4.7,8.5,34,0.00,,,0.00,WUHU216HW,2013-04-28 04:36:00,
2013-04-27 22:38:00,53.5,26.3,29.78,NE,45,7.4,8.5,35,0.00,,,0.00,WUHU216HW,2013-04-28 04:38:00,
2013-04-27 22:42:00,52.9,26.5,29.78,ENE,68,8.7,10.5,36,0.00,,,0.00,WUHU216HW,2013-04-28 04:42:00,
2013-04-27 22:43:00,52.7,26.4,29.78,ENE,68,7.4,10.5,36,0.00,,,0.00,WUHU216HW,2013-04-28 04:43:00,
2013-04-27 22:44:00,52.7,26.4,29.78,NE,45,7.6,10.5,36,0.00,,,0.00,WUHU216HW,2013-04-28 04:44:00,
2013-04-27 22:47:00,52.4,26.7,29.78,NE,45,6.0,10.5,37,0.00,,,0.00,WUHU216HW,2013-04-28 04:47:00,
2013-04-27 22:48:00,52.2,26.6,29.77,North,0,5.6,10.5,37,0.00,,,0.00,WUHU216HW,2013-04-28 04:48:00,
2013-04-27 22:49:00,52.2,26.6,29.78,West,270,5.8,10.5,37,0.00,,,0.00,WUHU216HW,2013-04-28 04:49:00,
2013-04-27 22:52:00,52.0,26.4,29.77,North,0,0.9,10.1,37,0.00,,,0.00,WUHU216HW,2013-04-28 04:52:00,
2013-04-27 22:53:00,52.2,25.8,29.78,NW,315,3.6,10.1,36,0.00,,,0.00,WUHU216HW,2013-04-28 04:53:00,
2013-04-27 22:54:00,52.2,25.8,29.78,NW,315,3.1,10.1,36,0.00,,,0.00,WUHU216HW,2013-04-28 04:54:00,
2013-04-27 22:57:00,53.3,26.8,29.77,WNW,293,6.9,11.9,36,0.00,,,0.00,WUHU216HW,2013-04-28 04:57:00,
2013-04-27 22:58:00,53.6,25.7,29.78,NW,315,4.7,11.9,34,0.00,,,0.00,WUHU216HW,2013-04-28 04:58:00,
2013-04-27 22:59:00,53.6,25.7,29.78,West,270,4.7,11.9,34,0.00,,,0.00,WUHU216HW,2013-04-28 04:59:00,
2013-04-27 23:03:00,54.4,25.7,29.78,WNW,293,7.6,11.9,33,0.00,,,0.00,WUHU216HW,2013-04-28 05:03:00,
2013-04-27 23:04:00,54.4,25.7,29.77,WNW,293,7.2,11.9,33,0.00,,,0.00,WUHU216HW,2013-04-28 05:04:00,
2013-04-27 23:09:00,55.1,26.3,29.78,NW,315,3.4,10.3,33,0.00,,,0.00,WUHU216HW,2013-04-28 05:09:00,
2013-04-27 23:10:00,55.1,25.6,29.78,NW,315,4.5,10.3,32,0.00,,,0.00,WUHU216HW,2013-04-28 05:10:00,
2013-04-27 23:14:00,55.3,26.5,29.78,WNW,293,9.8,13.9,33,0.00,,,0.00,WUHU216HW,2013-04-28 05:14:00,
2013-04-27 23:15:00,55.3,26.5,29.78,WNW,293,9.8,13.9,33,0.00,,,0.00,WUHU216HW,2013-04-28 05:15:00,
2013-04-27 23:19:00,55.3,26.5,29.79,WNW,293,8.9,13.9,33,0.00,,,0.00,WUHU216HW,2013-04-28 05:19:00,
2013-04-27 23:20:00,55.3,26.5,29.79,West,270,5.1,13.9,33,0.00,,,0.00,WUHU216HW,2013-04-28 05:20:00,
2013-04-27 23:24:00,55.3,26.5,29.79,West,270,8.9,11.4,33,0.00,,,0.00,WUHU216HW,2013-04-28 05:24:00,
2013-04-27 23:25:00,55.3,26.5,29.79,West,270,8.9,11.4,33,0.00,,,0.00,WUHU216HW,2013-04-28 05:25:00,
2013-04-27 23:29:00,55.3,27.2,29.79,West,270,8.5,15.2,34,0.00,,,0.00,WUHU216HW,2013-04-28 05:29:00,
2013-04-27 23:30:00,55.3,27.2,29.79,WNW,293,12.3,15.2,34,0.00,,,0.00,WUHU216HW,2013-04-28 05:30:00,
2013-04-27 23:34:00,55.1,27.0,29.79,NW,315,6.9,15.2,34,0.00,,,0.00,WUHU216HW,2013-04-28 05:34:00,
2013-04-27 23:35:00,55.1,27.0,29.79,NW,315,10.7,15.2,34,0.00,,,0.00,WUHU216HW,2013-04-28 05:35:00,
2013-04-27 23:39:00,55.1,27.0,29.79,WNW,293,6.5,14.3,34,0.00,,,0.00,WUHU216HW,2013-04-28 05:39:00,
2013-04-27 23:40:00,54.9,26.8,29.79,NW,315,2.7,13.2,34,0.00,,,0.00,WUHU216HW,2013-04-28 05:40:00,
2013-04-27 23:45:00,54.7,28.1,29.79,West,270,4.3,13.2,36,0.00,,,0.00,WUHU216HW,2013-04-28 05:45:00,
2013-04-27 23:46:00,54.5,27.9,29.79,NNW,338,4.7,13.2,36,0.00,,,0.00,WUHU216HW,2013-04-28 05:46:00,
2013-04-27 23:50:00,54.4,28.4,29.79,ENE,68,6.5,7.8,37,0.00,,,0.00,WUHU216HW,2013-04-28 05:50:00,
2013-04-27 23:51:00,54.2,29.0,29.79,NE,45,5.4,7.8,38,0.00,,,0.00,WUHU216HW,2013-04-28 05:51:00,
2013-04-27 23:55:00,52.4,30.4,29.79,North,0,7.2,11.9,43,0.00,,,0.00,WUHU216HW,2013-04-28 05:55:00,
2013-04-27 23:56:00,52.4,31.0,29.79,North,0,7.2,11.9,44,0.00,,,0.00,WUHU216HW,2013-04-28 05:56:00,